Calls for Service

Disclaimer: This information is not intended to be used as official crime data. This program does not provide information about all crimes, and excludes specific incidents such as sexual assaults and child abuse. The City of Conway Police Department makes every effort to produce and publish current and accurate information. No warranties, expressed or implied, are provided for the data herein, its use, or its interpretation. The services provided are for informational purposes only and should not be relied on for any type of legal action.

Loading calls...
Showing calls from previous 10 days
Call Number Case Number Address Call Time Incident Type
18-0505368 1860 JOHN BRYANT DR 2018-05-26 17:20:32.077 RECKLESS DRIVER
18-0505367 4805 QUARRY DR 2018-05-26 17:05:23.453 SERVING SUBPOENA
18-0505365 910 BROWNSTONE DR 2018-05-26 16:55:00.767 SERVING SUBPOENA
18-0505364 401 2ND ST 2018-05-26 16:52:54.577 CIVIL MATTER
18-0505362 18-05852 150 AMITY RD 2018-05-26 16:40:09.633 ACCIDENT - HIT AND RUN
18-0505361 18-05851 605 4TH AV 2018-05-26 16:37:26.843 ATTEMPT TO CONTACT
18-0505360 314 ELIZABETH ST 2018-05-26 16:33:28.517 SUSPICIOUS PERSON
18-0505358 409 SHANNON CIR 2018-05-26 16:15:23.330 ATTEMPT TO CONTACT
18-0505354 1155 SKYLINE DR 2018-05-26 15:43:07.567 CIVIL MATTER
18-0505352 2200 LUKCAS LN 2018-05-26 15:36:49.040 LOUD NOISE-MUSIC
18-0505348 18-05849 380 HARKRIDER ST 2018-05-26 15:30:12.840 CHECK ON THE WELFARE
18-0505340 1400 OLD MORRILTON HWY 2018-05-26 15:06:19.673 ALARM
18-0505336 1200 GIST ST 2018-05-26 14:57:19.030 CHECKING VEHICLE
18-0505330 18-05848 1000 BOB COURTWAY DR 2018-05-26 14:16:30.983 ACCIDENT - PROPERTY DAMAGE
18-0505327 475 ROBINS ST 2018-05-26 14:05:33.820 OPEN DOOR/WINDOW/FENCE
18-0505326 18-05847 816 E OAK ST 2018-05-26 14:03:34.120 ACCIDENT - PROPERTY DAMAGE
18-0505325 2420 BROADVIEW AV 2018-05-26 14:01:21.250 STALLED VEHICLE
18-0505321 207 WILLOW ST 2018-05-26 13:26:28.703 DISTURBANCE
18-0505320 1399 PINE ST 2018-05-26 13:22:21.673 CHECK ON THE WELFARE
18-0505319 80 KENSINGTON DR 2018-05-26 13:21:58.960 LOUD NOISE-MUSIC
18-0505318 2350 SANDERS ST 2018-05-26 13:17:28.217 CHECK ON THE WELFARE
18-0505317 777 S EAST GERMAN LN 2018-05-26 13:12:23.963 RECKLESS DRIVER
18-0505315 875 SKYLINE DR 2018-05-26 13:10:48.320 TRESPASSING
18-0505308 401 2ND ST 2018-05-26 12:34:55.710 ATTEMPT TO CONTACT
18-0505307 6001 2018-05-26 12:30:23.407 RECKLESS DRIVER
18-0505297 2 PATTON CIR 2018-05-26 11:54:24.980 911 HANGUP CALL
18-0505295 18-05845 1110 E OAK ST 2018-05-26 11:47:02.400 ACCIDENT - PROPERTY DAMAGE
18-0505294 375 MONROE ST 2018-05-26 11:43:05.963 ATTEMPT TO CONTACT
18-0505290 18-05844 1325 OLD MORRILTON HWY 2018-05-26 11:26:02.710 FRAUD
18-0505287 2050 DAVE WARD DR 2018-05-26 11:13:01.757 CHECK ON THE WELFARE
18-0505286 2050 DAVE WARD DR 2018-05-26 11:12:35.440 CHECK ON THE WELFARE
18-0505285 200 MERRIMAN ST 2018-05-26 11:01:25.890 CHECKING VEHICLE
18-0505281 5200 BAY TOWN DR 2018-05-26 10:47:19.293 CHECK ON THE WELFARE
18-0505277 222 E DAVE WARD DR 2018-05-26 10:10:57.060 DISTURBANCE
18-0505275 1615 E OAK ST 2018-05-26 09:28:35.960 TRESPASSING
18-0505273 18-05843 3280 OLD MORRILTON HWY 2018-05-26 09:19:30.493 BURGLARY
18-0505272 1020 DAVIS ST 2018-05-26 09:18:59.107 FOUND PROPERTY
18-0505269 2611 COLLEGE AV 2018-05-26 08:51:05.477 CHECK ON THE WELFARE
18-0505267 201 SKYLINE DR 2018-05-26 08:48:22.093 ATTEMPT TO CONTACT
18-0505260 945 SALEM RD 2018-05-26 07:54:13.270 OPEN DOOR/WINDOW/FENCE
18-0505258 1702 CLIFTON ST 2018-05-26 07:21:14.090 ATTEMPT TO CONTACT
18-0505257 2300 HOGAN LN 2018-05-26 06:57:16.030 CITIZEN ASSIST
18-0505256 801 ELSINGER BLVD 2018-05-26 06:55:51.123 ATTEMPT TO CONTACT
18-0505255 18-05841 501 ELSINGER BLVD 2018-05-26 06:51:46.130 CHECKING VEHICLE
18-0505254 1323 BELLEMEADE DR 2018-05-26 06:27:48.060 CIVIL STAND BY
18-0505253 801 ELSINGER BLVD 2018-05-26 06:23:18.407 ATTEMPT TO CONTACT
18-0505252 2745 CARL STUART ST 2018-05-26 05:42:48.160 SUSPICIOUS VEHICLE
18-0505251 1115 E OAK ST 2018-05-26 05:13:06.263 ALARM - HOLD UP or PANIC
18-0505246 3503 NUTTERS CHAPEL RD 2018-05-26 04:22:09.353 LOUD NOISE-MUSIC
18-0505241 1700 HAIRSTON AV 2018-05-26 02:33:19.800 CHECKING PERSON
18-0505240 1601 HOGAN LN 2018-05-26 02:32:25.247 CHECKING VEHICLE
18-0505238 1651 HAIRSTON AV 2018-05-26 02:17:48.823 DISTURBANCE
18-0505237 1160 HOGAN LN 2018-05-26 02:03:31.540 CHECKING VEHICLE
18-0505236 18-05838 1775 OLD MORRILTON HWY 2018-05-26 01:58:24.680 SHOPLIFTING
18-0505235 2815 YORK LN 2018-05-26 01:56:55.370 CHECKING VEHICLE
18-0505234 2204 ARKANSAS AV 2018-05-26 01:39:37.230 CHECKING VEHICLE
18-0505233 126 OAK ST 2018-05-26 01:35:35.817 CHECKING VEHICLE
18-0505232 1001 MCNUTT RD 2018-05-26 01:25:27.470 CHECKING VEHICLE
18-0505230 1155 SKYLINE DR 2018-05-26 01:15:07.450 ALARM
18-0505229 1155 SKYLINE DR 2018-05-26 01:10:28.843 CHECKING PERSON
18-0505226 3250 JW AND PAT BROWN BLVD 2018-05-26 01:00:28.810 OPEN DOOR/WINDOW/FENCE
18-0505224 1155 SKYLINE DR 2018-05-26 00:51:24.343 CHECKING VEHICLE
18-0505221 5200 JOHN W. ALLISON RD 2018-05-26 00:45:06.520 CHECKING VEHICLE
18-0505220 1360 TORREYSON ST 2018-05-26 00:39:45.933 BATTERY REPORT
18-0505218 2420 BROADVIEW AV 2018-05-26 00:19:49.827 CHECKING VEHICLE
18-0505217 600 BRISTOL LN 2018-05-26 00:15:04.390 ATTEMPT TO CONTACT
18-0505216 2555 APPLE BLOSSOM 2018-05-26 00:10:28.530 CIVIL STAND BY
18-0505215 1620 MIDDLE RD 2018-05-26 00:08:26.363 LOUD NOISE-MUSIC
18-0505213 18-05836 1264 BRUCE ST 2018-05-25 23:47:01.087 ACCIDENT - PROPERTY DAMAGE
18-0505212 835 S DONAGHEY AV 2018-05-25 23:45:31.510 LOUD NOISE-MUSIC
18-0505207 4415 OREGON TRL 2018-05-25 23:01:35.103 ATTEMPT TO CONTACT
18-0505206 803 HARKRIDER ST 2018-05-25 23:01:19.660 CHECKING VEHICLE
18-0505204 18-05834 1065 CLAYTON ST 2018-05-25 22:50:50.873 THEFT OF PROPERTY
18-0505203 2715 PRINCE ST 2018-05-25 22:48:28.257 CHECK ON THE WELFARE
18-0505201 150 SKYLINE DR 2018-05-25 22:42:51.900 STALLED VEHICLE
18-0505200 1105 PRAIRIE ST 2018-05-25 22:40:18.640 ATTEMPT TO CONTACT
18-0505199 1065 CLAYTON ST 2018-05-25 22:38:38.753 FIRE DEPT ASSIST
18-0505197 1650 NUTHATCH CIR 2018-05-25 22:22:36.183 CHECK ON THE WELFARE
18-0505195 902 S SALEM RD 2018-05-25 22:08:14.470 SUPPLEMENT REPORT CALL
18-0505193 2300 PRINCE ST 2018-05-25 21:58:24.927 CHECKING VEHICLE
18-0505191 750 FACTORY ST 2018-05-25 21:47:33.333 LOUD NOISE-MUSIC
18-0505190 401 2ND ST 2018-05-25 21:47:25.177 FIGHT
18-0505189 2292 HAIRSTON AV 2018-05-25 21:45:22.307 SUSPICIOUS PERSON
18-0505188 18-05833 475 ROBINS ST 2018-05-25 21:44:19.993 ANIMAL BITE
18-0505185 18-05832 1155 SKYLINE DR 2018-05-25 21:33:16.173 THEFT OF PROPERTY
18-0505182 235 FARRIS RD 2018-05-25 21:09:33.190 ATTEMPT TO CONTACT
18-0505181 18-05831 1155 SKYLINE DR 2018-05-25 21:07:12.120 THEFT OF PROPERTY
18-0505178 246 MILL POND RD 2018-05-25 20:45:13.113 ATTEMPT TO CONTACT
18-0505176 1835 TYLER ST 2018-05-25 20:40:44.523 CHECK ON THE WELFARE
18-0505175 103 CLUB LN 2018-05-25 20:07:37.030 LOUD NOISE-MUSIC
18-0505174 18-05830 1660 JACKSON DR 2018-05-25 20:06:57.403 INTERFERENCE WITH CUSTODY
18-0505171 500 SALEM RD 2018-05-25 19:40:09.730 SUSPICIOUS VEHICLE
18-0505170 304 MILDRED ST 2018-05-25 19:23:43.353 ALARM
18-0505169 413 S ASH ST 2018-05-25 19:21:28.223 ATTEMPT TO CONTACT
18-0505168 18-05829 614 MITCHELL ST 2018-05-25 19:21:11.487 FOUND PROPERTY
18-0505166 18-05828 205 PICKWICKET DR 2018-05-25 19:04:38.107 BATTERY REPORT
18-0505165 1001 HARKRIDER ST 2018-05-25 18:52:56.780 INTOXICATED DRIVER
18-0505164 2325 DAVE WARD DR 2018-05-25 18:51:13.723 SUSPICIOUS ACTIVITY
18-0505162 1900 HOGAN LN 2018-05-25 18:19:56.057 CIVIL MATTER
18-0505161 18-05826 1105 PRAIRIE ST 2018-05-25 18:13:54.330 INTERFERENCE WITH CUSTODY
18-0505160 18-05827 1100 S AMITY RD 2018-05-25 18:12:49.310 ACCIDENT - PROPERTY DAMAGE
18-0505158 1105 PRAIRIE ST 2018-05-25 18:00:12.227 CIVIL STAND BY
18-0505157 3620 CREPE MYRTLE CV 2018-05-25 17:55:28.160 SERVING SUBPOENA
18-0505156 600 SKYLINE DR 2018-05-25 17:50:54.937 TRAFFIC PROBLEM-CONTROL
18-0505155 801 ELSINGER BLVD 2018-05-25 17:40:00.380 SUPPLEMENT REPORT CALL
18-0505153 450 SKYLINE DR 2018-05-25 17:10:02.553 INTERFERENCE WITH CUSTODY
18-0505152 1701 DONAGHEY AV 2018-05-25 16:59:15.267 RUNAWAY
18-0505150 975 WINEBERRY RD 2018-05-25 16:53:44.633 ATTEMPT TO CONTACT
18-0505149 1265 BRUCE ST 2018-05-25 16:44:36.830 ATTEMPT TO CONTACT
18-0505148 600 SKYLINE DR 2018-05-25 16:40:27.723 ACCIDENT - HIT AND RUN
18-0505147 1570 GARDENIA 2018-05-25 16:39:59.953 ABANDONED VEHICLE
18-0505145 2250 WILMINGTON DR 2018-05-25 16:37:36.243 SUPPLEMENT REPORT CALL
18-0505141 2730 DAVE WARD DR 2018-05-25 16:27:12.950 CIVIL MATTER
18-0505140 1620 E OAK ST 2018-05-25 16:17:29.157 DOMESTIC DISTURBANCE
18-0505139 1620 E OAK ST 2018-05-25 16:17:28.657 DISTURBANCE
18-0505138 18-05825 1155 SKYLINE DR 2018-05-25 16:05:24.070 LOST-STOLEN LICENSE PLATE
18-0505136 801 ELSINGER BLVD 2018-05-25 15:56:21.383 SUPPLEMENT REPORT CALL
18-0505135 475 ROBINS ST 2018-05-25 15:54:12.663 ATTEMPT TO CONTACT
18-0505134 2405 WASHINGTON AV 2018-05-25 15:50:58.220 ATTEMPT TO CONTACT
18-0505133 2890 DAVE WARD DR 2018-05-25 15:48:59.300 CHECKING VEHICLE
18-0505131 2955 BECKY RD 2018-05-25 15:42:04.973 NO CONTACT ORDER VIOLATION
18-0505130 895 BROWNSTONE DR 2018-05-25 15:41:51.510 ANIMAL BITE
18-0505129 18-05823 901 E OAK ST 2018-05-25 15:34:29.350 ACCIDENT - PROPERTY DAMAGE
18-0505128 2840 FLOYD DR 2018-05-25 15:28:20.997 FOUND PROPERTY
18-0505126 2695 DAVE WARD DR 2018-05-25 15:25:54.260 SUPPLEMENT REPORT CALL
18-0505125 18-05822 1254 FLEMING ST 2018-05-25 15:25:08.643 LOST PROPERTY
18-0505123 18-05821 2214 WEST ST 2018-05-25 15:17:20.387 NO CONTACT ORDER VIOLATION
18-0505122 18-05820 801 ELSINGER BLVD 2018-05-25 15:12:29.830 SHOPLIFTING
18-0505121 500 SOUTH GERMAN LN 2018-05-25 15:09:07.383 MISDEMEANOR WARRANT SERVICE
18-0505120 18-05819 601 ELSINGER BLVD 2018-05-25 15:05:43.583 SHOPLIFTING
18-0505119 18-05818 855 SALEM RD 2018-05-25 15:00:50.313 FOUND PROPERTY
18-0505112 401 2ND ST 2018-05-25 14:25:44.053 SUPPLEMENT REPORT CALL
18-0505111 3333 DAVE WARD DR 2018-05-25 14:20:11.440 TRAFFIC PROBLEM-CONTROL
18-0505110 18-05816 2165 HARKRIDER ST 2018-05-25 14:16:12.787 ACCIDENT - PERSONAL INJURY
18-0505109 1405 S DONAGHEY AV 2018-05-25 14:15:09.403 ATTEMPT TO CONTACT
18-0505107 18-05813 1028 FRONT ST 2018-05-25 13:48:25.847 ACCIDENT - PROPERTY DAMAGE
18-0505106 18-05815 1020 WESTFIELD DR 2018-05-25 13:44:31.360 THEFT OF PROPERTY
18-0505104 18-05817 1555 EXCHANGE AV 2018-05-25 13:31:22.950 UNAUTHORIZED USE OF MOTOR VEHICLE
18-0505103 18-05812 2405 WASHINGTON AV 2018-05-25 13:26:51.570 ARMED SUBJECT
18-0505101 18-05811 1052 HARRISON ST 2018-05-25 13:19:22.747 ACCIDENT - PRIVATE PROPERTY
18-0505098 127 I40WB 2018-05-25 13:04:12.830 CHECK ON THE WELFARE
18-0505093 2003 DONAGHEY AV 2018-05-25 12:49:09.963 SERVING SUBPOENA
18-0505092 18-05810 501 ELSINGER BLVD 2018-05-25 12:46:56.760 ACCIDENT - PRIVATE PROPERTY
18-0505090 1701 HUTTO ST 2018-05-25 12:43:06.250 HARASSING COMMUNICATIONS
18-0505080 1615 ROBINS ST 2018-05-25 12:15:26.340 NO CONTACT ORDER VIOLATION
18-0505078 1105 PRAIRIE ST 2018-05-25 12:11:21.680 INTERFERENCE WITH CUSTODY
18-0505065 2405 PARKVIEW CIR 2018-05-25 11:22:38.900 ATTEMPT TO CONTACT
18-0505064 18-05809 3611 OLD MORRILTON HWY 2018-05-25 11:16:54.617 ACCIDENT - PRIVATE PROPERTY
18-0505063 18-05808 475 ROBINS ST 2018-05-25 11:06:00.293 ABUSE
18-0505062 18-05807 3900 DAVE WARD DR 2018-05-25 11:00:50.330 FRAUD
18-0505061 801 LOCUST AV 2018-05-25 10:59:00.803 ATTEMPT TO CONTACT
18-0505057 3100 SALEM RD 2018-05-25 10:34:56.230 STALLED VEHICLE
18-0505055 443 MILDRED ST 2018-05-25 10:34:36.340 ATTEMPT TO CONTACT
18-0505054 18-05806 707 ROBINS ST 2018-05-25 10:30:12.040 AGENCY ASSIST
18-0505052 650 DAVE WARD DR 2018-05-25 10:27:17.130 CHECKING BUILDING
18-0505050 510 SOUTH GERMAN LN 2018-05-25 10:24:06.650 ATTEMPT TO CONTACT
18-0505048 710 S HARKRIDER DR 2018-05-25 10:16:56.767 SERVING SUBPOENA
18-0505042 905 BURROW AV 2018-05-25 09:57:39.413 ALARM
18-0505040 225 TILK RD 2018-05-25 09:38:42.743 SERVING SUBPOENA
18-0505033 2611 PRINCE ST 2018-05-25 09:09:23.560 TRESPASSING
18-0505032 600 5TH AV 2018-05-25 09:09:01.487 CHECKING VEHICLE
18-0505029 18-05803 815 E OAK ST 2018-05-25 09:06:43.530 ATTEMPT TO CONTACT
18-0505028 3430 IRBY DR 2018-05-25 09:04:15.483 SERVING SUBPOENA
18-0505026 1605 CLIFTON ST 2018-05-25 09:00:29.750 SERVING SUBPOENA
18-0505025 1615 ROBINS ST 2018-05-25 08:48:50.810 SERVING SUBPOENA
18-0505024 1230 CLIFTON ST 2018-05-25 08:38:03.070 SERVING SUBPOENA
18-0505020 835 S DONAGHEY AV 2018-05-25 08:04:58.820 ATTEMPT TO CONTACT
18-0505019 18-05800 2405 WASHINGTON AV 2018-05-25 07:59:06.953 BREAKING OR ENTERING
18-0505018 646 S HARKRIDER DR 2018-05-25 07:45:14.523 SUSPICIOUS PERSON
18-0505016 229 OLIVER ST 2018-05-25 07:01:28.913 SUPPLEMENT REPORT CALL
18-0505015 475 ROBINS ST 2018-05-25 06:44:41.430 INTOXICATED PERSON
18-0505014 229 OLIVER ST 2018-05-25 06:15:35.400 SUPPLEMENT REPORT CALL
18-0505013 2730 DAVE WARD DR 2018-05-25 06:14:30.250 AGENCY ASSIST
18-0505012 441 MILDRED ST 2018-05-25 05:57:11.227 TRESPASSING
18-0505011 1980 MASSEE GARDENS 2018-05-25 05:48:56.040 DISCHARGING FIREWORKS
18-0505009 2150 HARKRIDER ST 2018-05-25 05:14:46.317 ALARM - BANK
18-0505008 475 ROBINS ST 2018-05-25 04:19:04.310 DOMESTIC DISTURBANCE
18-0505006 525 AUDUBON PL 2018-05-25 03:50:07.423 ALARM
18-0505005 1199 FENDLEY DR 2018-05-25 03:48:19.237 CHECKING PERSON
18-0505004 1485 OLD MORRILTON HWY 2018-05-25 03:40:39.690 CHECKING PERSON
18-0505003 18-05798 1510 HATHAWAY DR 2018-05-25 03:36:38.180 DOMESTIC DISTURBANCE
18-0505001 810 MUSEUM RD 2018-05-25 03:16:57.257 SUSPICIOUS VEHICLE
18-0505000 501 ELSINGER BLVD 2018-05-25 03:05:48.037 OPEN DOOR/WINDOW/FENCE
18-0504999 1614 WESTLAKE DR 2018-05-25 03:02:13.500 BURGLARY
18-0504997 2704 BRUCE ST 2018-05-25 02:35:19.070 SHOTS FIRED
18-0504996 150 E OAK ST 2018-05-25 02:15:07.287 CHECKING PERSON
18-0504995 1701 HUTTO ST 2018-05-25 02:07:17.390 BARKING DOG COMPLAINT
18-0504992 527 GROVE ST 2018-05-25 01:44:00.820 ALARM
18-0504989 1530 SILVER FALLS 2018-05-25 01:16:18.513 UNKNOWN TROUBLE
18-0504988 3660 JEANNA DR 2018-05-25 01:16:17.407 LOUD NOISE-MUSIC
18-0504987 5600 SPENCER LAKE DR 2018-05-25 01:03:20.107 CHECKING VEHICLE
18-0504985 1325 OLD MORRILTON HWY 2018-05-25 00:47:45.180 CHECKING PERSON
18-0504984 18-05797 1485 OLD MORRILTON HWY 2018-05-25 00:40:06.283 THEFT OF PROPERTY
18-0504983 18-05796 220 SKYLINE DR 2018-05-25 00:36:55.600 AGENCY ASSIST
18-0504982 1 CADRON SETTLEMENT PARK RD 2018-05-25 00:34:50.190 CHECKING BUILDING
18-0504980 417 ANGUS ST 2018-05-25 00:18:38.133 CHECKING BUILDING
18-0504978 600 WESTHAVEN DR 2018-05-25 00:10:42.840 REPOSSESSION
18-0504976 2499 MUSEUM RD 2018-05-24 23:58:05.337 INTOXICATED PERSON
18-0504975 2330 SANDERS ST 2018-05-24 23:41:47.727 DISTURBANCE
18-0504974 1105 PRAIRIE ST 2018-05-24 23:33:56.473 PURSUIT DRILL
18-0504972 650 ELSINGER BLVD 2018-05-24 23:24:02.523 ALARM
18-0504970 1263 LINCOLN ST 2018-05-24 23:05:51.097 TRESPASSING
18-0504969 18-05795 1155 SKYLINE DR 2018-05-24 23:04:43.483 BREAKING OR ENTERING
18-0504968 2099 ERBACH ST 2018-05-24 22:56:55.210 CHECKING PERSON
18-0504966 18-05794 1721 HUTTO ST 2018-05-24 22:48:04.423 THEFT OF VEHICLE
18-0504965 1835 ROBINS ST 2018-05-24 22:37:14.983 DOMESTIC DISTURBANCE
18-0504964 375 MONROE ST 2018-05-24 22:35:00.650 LOUD NOISE-MUSIC
18-0504962 1555 APPALACHAIN DR 2018-05-24 22:22:58.950 CHECK ON THE WELFARE
18-0504959 18-05793 1905 OLD MORRILTON HWY 2018-05-24 22:15:19.647 ACCIDENT - PRIVATE PROPERTY
18-0504958 129 I40EB 2018-05-24 21:57:01.167 STALLED VEHICLE
18-0504955 1155 SKYLINE DR 2018-05-24 21:52:32.700 SUPPLEMENT REPORT CALL
18-0504954 18-05791 1485 OLD MORRILTON HWY 2018-05-24 21:48:44.920 DISTURBANCE
18-0504952 100 INGRAM ST 2018-05-24 21:31:33.960 STALLED VEHICLE
18-0504949 340 SHAW ST 2018-05-24 21:15:26.693 AGENCY ASSIST
18-0504948 2050 E OAK ST 2018-05-24 21:14:49.643 ATTEMPT TO CONTACT
18-0504946 18-05790 6 CUMBERLAND PARK DR 2018-05-24 21:07:59.387 ACCIDENT - PROPERTY DAMAGE
18-0504945 1157 MITCHELL ST 2018-05-24 21:06:53.770 LOUD NOISE-MUSIC
18-0504942 18-05787 2550 PRINCE ST 2018-05-24 20:51:42.293 THEFT OF PROPERTY
18-0504940 505 DONAGHEY AV 2018-05-24 20:40:42.290 CHECKING PERSON
18-0504938 2321 BLANEY HILL RD 2018-05-24 20:27:13.603 CHECK ON THE WELFARE
18-0504937 18-05785 223 MILL ST 2018-05-24 20:17:00.823 HARASSMENT
18-0504936 2505 ROBINSON AV 2018-05-24 20:08:43.127 CIVIL MATTER
18-0504935 2170 HARKRIDER ST 2018-05-24 20:08:16.730 CHECKING VEHICLE
18-0504933 1352 COLLEGE AV 2018-05-24 20:06:00.167 CHECKING PERSON
18-0504932 18-05786 229 OLIVER ST 2018-05-24 20:05:30.103 BURGLARY
18-0504931 1405 ROBINS ST 2018-05-24 20:03:03.897 PARKING VIOLATION
18-0504929 475 ROBINS ST 2018-05-24 19:51:50.090 BURGLARY
18-0504927 3615 HEIDI CT 2018-05-24 19:43:37.603 ALARM - HOLD UP or PANIC
18-0504925 18-05784 1155 SKYLINE DR 2018-05-24 19:31:02.657 BREAKING OR ENTERING
18-0504924 615 ROBINS ST 2018-05-24 19:26:14.503 CHECK ON THE WELFARE
18-0504923 521 3RD ST 2018-05-24 19:17:08.213 SUSPICIOUS PERSON
18-0504922 223 MILL ST 2018-05-24 19:10:04.900 SUSPICIOUS PERSON
18-0504921 860 ELSINGER BLVD 2018-05-24 19:07:48.537 ATTEMPT TO CONTACT
18-0504919 555 COUNTRY CLUB RD 2018-05-24 19:04:08.883 ATTEMPT TO CONTACT
18-0504916 1115 PARKWAY ST 2018-05-24 18:49:34.457 DISTURBANCE
18-0504915 501 ELSINGER BLVD 2018-05-24 18:37:20.713 SUPPLEMENT REPORT CALL
18-0504914 101 OAK ST 2018-05-24 18:35:23.763 DISTURBANCE
18-0504913 18-05782 555 COUNTRY CLUB RD 2018-05-24 18:29:57.607 PROPERTY DAMAGE
18-0504911 18-05781 1600 SOUTHERN HILLS DR 2018-05-24 18:07:56.827 ACCIDENT - PROPERTY DAMAGE
18-0504909 18-05780 1200 DAVE WARD DR 2018-05-24 18:02:45.600 ACCIDENT - PROPERTY DAMAGE
18-0504908 1525 CLIFTON ST 2018-05-24 18:02:37.223 CRIMINAL MISCHIEF
18-0504907 18-05779 101 OAK ST 2018-05-24 17:55:18.793 ACCIDENT - PRIVATE PROPERTY
18-0504905 3250 JW AND PAT BROWN BLVD 2018-05-24 17:53:14.147 DISTURBANCE
18-0504904 1324 BELLEMEADE DR 2018-05-24 17:43:52.190 CIVIL MATTER
18-0504902 134 HARKRIDER ST 2018-05-24 17:30:59.463 CIVIL MATTER
18-0504901 18-05775 200 S HARKRIDER DR 2018-05-24 17:21:26.947 GAS DRIVE OFF
18-0504900 1213 COLLIER DR 2018-05-24 17:16:37.717 ATTEMPT TO CONTACT
18-0504899 18-05773 401 6TH ST 2018-05-24 17:09:25.310 ACCIDENT - PROPERTY DAMAGE
18-0504898 18-05774 600 SKYLINE DR 2018-05-24 17:08:52.157 ACCIDENT - PROPERTY DAMAGE
18-0504897 201 SKYLINE DR 2018-05-24 17:07:03.737 TRAFFIC LIGHT PROBLEM
18-0504895 18-05771 2130 HARKRIDER ST 2018-05-24 16:54:28.417 ACCIDENT - PERSONAL INJURY
18-0504893 18-05776 220 E OAK ST 2018-05-24 16:49:46.270 AGENCY ASSIST
18-0504892 18-05772 1600 WESTLAKE DR 2018-05-24 16:47:53.510 BREAKING OR ENTERING
18-0504891 18-05778 3900 DAVE WARD DR 2018-05-24 16:45:34.947 ACCIDENT - PRIVATE PROPERTY
18-0504890 18-05769 1224 JERSEY ST 2018-05-24 16:40:33.860 PROPERTY DAMAGE
18-0504888 1900 E DAVE WARD DR 2018-05-24 16:27:45.080 RECKLESS DRIVER
18-0504886 20 PEBBLEBROOK DR 2018-05-24 16:22:31.717 ATTEMPT TO CONTACT
18-0504885 18-05768 1200 E DAVE WARD DR 2018-05-24 16:20:36.663 ACCIDENT - PROPERTY DAMAGE
18-0504884 18-05770 1651 HAIRSTON AV 2018-05-24 16:08:16.447 THEFT OF PROPERTY
18-0504883 18-05767 231 LOCUST AV 2018-05-24 16:00:34.753 HARASSING COMMUNICATIONS
18-0504882 2695 DAVE WARD DR 2018-05-24 16:00:10.387 SUPPLEMENT REPORT CALL
18-0504880 127 I40WB 2018-05-24 15:47:19.093 STALLED VEHICLE
18-0504878 18-05762 2699 DONAGHEY AV 2018-05-24 15:19:55.070 ACCIDENT - PROPERTY DAMAGE
18-0504876 18-05763 1105 E OAK ST 2018-05-24 15:08:45.740 ACCIDENT - PERSONAL INJURY
18-0504875 2501 DAVE WARD DR 2018-05-24 15:08:21.607 CHECK ON THE WELFARE
18-0504874 18-05764 223 MILL ST 2018-05-24 15:05:51.703 DISTURBANCE
18-0504873 910 6TH ST 2018-05-24 15:00:04.893 SUSPICIOUS PERSON
18-0504872 30 GLENDALE DR 2018-05-24 14:56:18.547 VEHICLE TOW
18-0504871 18-05765 601 ELSINGER BLVD 2018-05-24 14:55:49.030 THEFT OF PROPERTY
18-0504870 1546 S SALEM RD 2018-05-24 14:45:55.377 SUSPICIOUS VEHICLE
18-0504868 1155 SKYLINE DR 2018-05-24 14:38:30.847 SUPPLEMENT REPORT CALL
18-0504867 530 S DONAGHEY AV 2018-05-24 14:37:34.327 ACCIDENT - PRIVATE PROPERTY
18-0504866 675 ELSINGER BLVD 2018-05-24 14:36:39.197 SUSPICIOUS ACTIVITY
18-0504865 18-05759 3 TUCKER CREEK RD 2018-05-24 14:18:57.313 DOMESTIC DISTURBANCE
18-0504863 2145 ROSEMARY DR 2018-05-24 14:09:27.560 ASSAULT
18-0504862 2250 WILMINGTON DR 2018-05-24 13:57:56.500 LOST PROPERTY
18-0504859 1950 DONAGHEY AV 2018-05-24 13:53:42.777 ATTEMPT TO CONTACT
18-0504858 450 SKYLINE DR 2018-05-24 13:53:11.870 SUPPLEMENT REPORT CALL
18-0504855 18-05761 7 WATER OAK DR 2018-05-24 13:50:03.403 MISSING PERSON
18-0504854 18-05760 2220 PRINCE ST 2018-05-24 13:46:35.000 RUNAWAY
18-0504853 415 MAPLE ST 2018-05-24 13:33:15.140 REPOSSESSION
18-0504851 18-05757 1000 EAST GERMAN LN 2018-05-24 13:12:04.917 ACCIDENT - PERSONAL INJURY
18-0504848 2006 MARILYN DR 2018-05-24 13:05:31.477 ATTEMPT TO CONTACT
18-0504847 905 SKYLINE DR 2018-05-24 13:02:17.067 ANIMAL BITE
18-0504846 18-05758 601 ELSINGER BLVD 2018-05-24 12:56:53.953 THEFT OF PROPERTY
18-0504845 50 LOWER RIDGE RD 2018-05-24 12:51:40.620 STALLED VEHICLE
18-0504844 18-05756 1255 FRENCH DR 2018-05-24 12:51:05.693 HARASSMENT
18-0504843 1865 MILESTONE DR 2018-05-24 12:43:50.757 VEHICLE TOW
18-0504841 20 BRONNIE LN 2018-05-24 12:30:20.303 REPOSSESSION
18-0504839 2585 DONAGHEY AV 2018-05-24 12:19:27.230 CIVIL MATTER
18-0504838 1324 BELLEMEADE DR 2018-05-24 12:16:04.427 BURGLARY
18-0504836 18-05755 201 SKYLINE DR 2018-05-24 12:11:23.417 ACCIDENT - PROPERTY DAMAGE
18-0504834 1325 OLD MORRILTON HWY 2018-05-24 12:07:32.597 SUPPLEMENT REPORT CALL
18-0504833 18-05754 475 ROBINS ST 2018-05-24 11:51:43.880 CRIMINAL MISCHIEF
18-0504832 2200 MEADOWLAKE RD 2018-05-24 11:47:53.790 RUNAWAY
18-0504830 1405 S DONAGHEY AV 2018-05-24 11:42:03.237 ATTEMPT TO CONTACT
18-0504825 18-05766 1324 BELLEMEADE DR 2018-05-24 11:11:38.140 TRESPASSING
18-0504824 710 S HARKRIDER DR 2018-05-24 11:05:59.147 SERVING SUBPOENA
18-0504823 315 SHAW ST 2018-05-24 11:05:27.993 ATTEMPT TO CONTACT
18-0504821 550 E DAVE WARD DR 2018-05-24 10:58:07.003 TRAFFIC LIGHT PROBLEM
18-0504817 475 ROBINS ST 2018-05-24 10:52:13.110 DOMESTIC DISTURBANCE
18-0504816 475 ROBINS ST 2018-05-24 10:42:16.570 DOMESTIC DISTURBANCE
18-0504811 18-05753 3875 RUPERT DR 2018-05-24 10:18:44.633 THEFT OF PROPERTY
18-0504809 1305 E SIEBENMORGEN RD 2018-05-24 10:15:52.517 HARASSMENT
18-0504808 475 ROBINS ST 2018-05-24 10:15:15.730 ATTEMPT TO CONTACT
18-0504807 3880 LEDBETTER DR 2018-05-24 10:09:10.933 AGENCY ASSIST
18-0504806 13 ROSEMOUNT DR 2018-05-24 10:08:35.490 CIVIL STAND BY
18-0504805 1475 HOGAN LN 2018-05-24 10:06:32.090 ALARM
18-0504799 1000 E SIEBENMORGEN RD 2018-05-24 09:43:47.783 ATTEMPT TO CONTACT
18-0504796 1405 S DONAGHEY AV 2018-05-24 09:32:35.343 SERVING SUBPOENA
18-0504790 18-05751 590 EAST GERMAN LN 2018-05-24 09:13:15.033 BREAKING OR ENTERING
18-0504785 18-05748 3950 DAVE WARD DR 2018-05-24 08:59:30.620 TERRORISTIC THREATENING
18-0504784 135 SOUTHERLAND RD 2018-05-24 08:59:19.777 ATTEMPT TO CONTACT
18-0504782 18-05749 1570 E OAK ST 2018-05-24 08:54:03.620 ACCIDENT - PROPERTY DAMAGE
18-0504781 2156 PRINCE ST 2018-05-24 08:47:27.373 ATTEMPT TO CONTACT
18-0504778 2010 RICH SMITH LN 2018-05-24 08:37:21.550 ATTEMPT TO CONTACT
18-0504776 1900 HOGAN LN 2018-05-24 08:25:21.800 CRIMINAL MISCHIEF
18-0504770 20 KINLEY DR 2018-05-24 05:29:02.597 CHECKING VEHICLE
18-0504769 1240 ADDY BROOK ST 2018-05-24 05:15:26.233 REPOSSESSION
18-0504768 1399 DAN ROSE DR 2018-05-24 04:29:00.317 SUSPICIOUS PERSON
18-0504767 401 2ND ST 2018-05-24 04:09:26.613 AGENCY ASSIST
18-0504764 1 HALLOUS ST 2018-05-24 03:01:23.920 CHECKING PERSON
18-0504763 2018-05-24 02:36:53.890 ATTEMPT TO CONTACT
18-0504761 1701 DAVE WARD DR 2018-05-24 02:09:35.997 ATTEMPT TO CONTACT
18-0504760 2200 MEADOWLAKE RD 2018-05-24 01:57:46.073 CHECKING PERSON
18-0504759 530 S DONAGHEY AV 2018-05-24 01:39:04.460 CHECK ON THE WELFARE
18-0504758 18-05746 2104 HARKRIDER ST 2018-05-24 01:14:29.640 ALARM
18-0504755 18-05744 1800 HOGAN LN 2018-05-24 00:44:29.550 CHECKING VEHICLE
18-0504754 18-05745 1300 COLLIER DR 2018-05-24 00:26:01.817 ACCIDENT - PROPERTY DAMAGE
18-0504752 200 S MITCHELL ST 2018-05-24 00:16:30.533 CHECKING PERSON
18-0504749 950 E 6TH ST 2018-05-24 00:05:49.623 CHECKING PERSON
18-0504747 475 ROBINS ST 2018-05-23 23:27:09.327 ENDANGERING WELFARE OF MINOR
18-0504746 695 EXCHANGE AV 2018-05-23 23:26:20.060 CHECKING PERSON
18-0504745 558 HARKRIDER ST 2018-05-23 23:19:27.043 CHECKING PERSON
18-0504743 1701 DAVE WARD DR 2018-05-23 23:04:01.820 CHECK ON THE WELFARE
18-0504741 20 KINLEY DR 2018-05-23 22:53:49.090 CHECKING VEHICLE
18-0504739 18-05742 260 S ASH ST 2018-05-23 22:48:25.647 CHECKING VEHICLE
18-0504738 20 KINLEY DR 2018-05-23 22:47:20.623 CHECKING VEHICLE
18-0504736 800 S DONAGHEY AV 2018-05-23 22:38:00.713 RECKLESS DRIVER
18-0504735 475 ROBINS ST 2018-05-23 22:34:28.100 DOMESTIC DISTURBANCE
18-0504734 707 ROBINS ST 2018-05-23 22:31:17.820 CHECKING PERSON
18-0504733 101 LOWER RIDGE RD 2018-05-23 22:30:50.707 CHECKING PERSON
18-0504729 1485 OLD MORRILTON HWY 2018-05-23 22:11:54.210 CHECKING VEHICLE
18-0504719 2050 E OAK ST 2018-05-23 21:29:14.013 CHECK ON THE WELFARE
18-0504716 1405 S DONAGHEY AV 2018-05-23 21:08:57.567 LOUD NOISE-MUSIC
18-0504714 1160 HOGAN LN 2018-05-23 20:56:14.303 CHECK ON THE WELFARE
18-0504712 825 2ND ST 2018-05-23 20:46:45.127 SUSPICIOUS PERSON
18-0504709 1200 OLD MORRILTON HWY 2018-05-23 20:29:18.410 RECKLESS DRIVER
18-0504706 101 OAK ST 2018-05-23 20:14:06.183 STALLED VEHICLE
18-0504704 3 CAMBRIDGE DR 2018-05-23 20:07:49.840 SUPPLEMENT REPORT CALL
18-0504702 500 SOUTH GERMAN LN 2018-05-23 20:02:13.157 ATTEMPT TO CONTACT
18-0504701 18-05741 1702 COLLEGE AV 2018-05-23 19:57:53.393 ACCIDENT - PROPERTY DAMAGE
18-0504699 18-05740 1600 E OAK ST 2018-05-23 19:06:08.607 DISTURBANCE
18-0504698 1242 TURNBERRY DR 2018-05-23 19:05:08.267 SUSPICIOUS PERSON
18-0504696 2100 MEADOWLAKE RD 2018-05-23 18:47:52.577 ALARM
18-0504695 1605 ROBINSON AV 2018-05-23 18:46:06.183 ALARM
18-0504694 18-05739 1905 OLD MORRILTON HWY 2018-05-23 18:45:22.517 ACCIDENT - PROPERTY DAMAGE
18-0504693 1303 DONAGHEY AV 2018-05-23 18:33:05.920 SUPPLEMENT REPORT CALL
18-0504692 2651 TIMBERPEG CT 2018-05-23 18:28:53.053 SUSPICIOUS PERSON
18-0504691 550 E DAVE WARD DR 2018-05-23 18:26:03.103 CHECK ON THE WELFARE
18-0504690 1160 HOGAN LN 2018-05-23 18:23:31.623 DISTURBANCE
18-0504689 1555 EXCHANGE AV 2018-05-23 18:17:05.720 CHECK ON THE WELFARE
18-0504687 201 SKYLINE DR 2018-05-23 17:45:36.350 RECKLESS DRIVER
18-0504684 18-05737 1105 SKYLINE DR 2018-05-23 16:58:37.813 ACCIDENT - PERSONAL INJURY
18-0504683 375 MONROE ST 2018-05-23 16:50:05.000 ATTEMPT TO CONTACT
18-0504682 2890 DAVE WARD DR 2018-05-23 16:49:42.740 STALLED VEHICLE
18-0504681 105 S CENTER ST 2018-05-23 16:39:19.087 CHECKING VEHICLE
18-0504680 18-05735 3950 DAVE WARD DR 2018-05-23 16:37:11.290 LOST PROPERTY
18-0504678 600 ELSINGER BLVD 2018-05-23 16:28:03.687 ATTEMPT TO CONTACT
18-0504677 960 LOCUST AV 2018-05-23 16:25:29.633 FIRE DEPT ASSIST
18-0504676 18-05736 2300 PRINCE ST 2018-05-23 16:14:44.297 RUNAWAY
18-0504675 18-05733 1985 RICH SMITH LN 2018-05-23 15:55:53.557 THEFT OF VEHICLE
18-0504674 18-05731 515 HARKRIDER ST 2018-05-23 15:40:45.383 ACCIDENT - PROPERTY DAMAGE
18-0504671 4715 STOCKTON RD 2018-05-23 15:34:11.320 THEFT OF PROPERTY
18-0504670 18-05729 620 CHESTNUT ST 2018-05-23 15:30:25.773 CRIMINAL MISCHIEF
18-0504668 18-05728 1155 SKYLINE DR 2018-05-23 15:22:34.667 ACCIDENT - PROPERTY DAMAGE
18-0504667 18-05732 150 SKYLINE DR 2018-05-23 15:18:02.840 FRAUD
18-0504665 18-05730 2401 CHRISTINA LN 2018-05-23 15:13:29.223 CIVIL MATTER
18-0504662 1155 SKYLINE DR 2018-05-23 15:05:12.133 STALLED VEHICLE
18-0504661 18-05727 2101 TYLER ST 2018-05-23 15:03:47.073 ACCIDENT - PROPERTY DAMAGE
18-0504660 18-05726 26 ROSANNE DR 2018-05-23 14:59:41.323 BURGLARY
18-0504659 810 4TH AV 2018-05-23 14:59:21.683 FIRE DEPT ASSIST
18-0504657 2125 HARKRIDER ST 2018-05-23 14:53:00.287 TRAFFIC PROBLEM-CONTROL
18-0504656 2018-05-23 14:50:23.240 WEATHER RELATED CALLS-PROBLEMS
18-0504655 1105 PRAIRIE ST 2018-05-23 14:40:43.890 ATTEMPT TO CONTACT
18-0504650 2215 NATURE TRL 2018-05-23 14:28:26.310 ALARM
18-0504649 1285 WOODSIDE DR 2018-05-23 14:27:24.203 ALARM
18-0504648 18-05725 3900 DAVE WARD DR 2018-05-23 14:25:02.333 ACCIDENT - PRIVATE PROPERTY
18-0504647 1612 CALDWELL ST 2018-05-23 14:21:57.270 SERVING SUBPOENA
18-0504646 127 I40EB 2018-05-23 14:21:45.100 STALLED VEHICLE
18-0504645 231 LOCUST AV 2018-05-23 14:18:11.830 FRAUD
18-0504643 2040 MASSEE GARDENS 2018-05-23 13:59:45.360 SERVING SUBPOENA
18-0504641 1840 MILESTONE DR 2018-05-23 13:45:47.750 ABANDONED VEHICLE
18-0504640 18-05724 428 3RD AV 2018-05-23 13:35:22.927 SHOTS FIRED
18-0504635 1940 AMELIA DR 2018-05-23 13:05:25.727 UNKNOWN TROUBLE
18-0504634 18-05722 801 ELSINGER BLVD 2018-05-23 12:47:28.197 SHOPLIFTING
18-0504631 400 E DAVE WARD DR 2018-05-23 12:27:31.357 ACCIDENT - PROPERTY DAMAGE
18-0504630 18-05720 450 E DAVE WARD DR 2018-05-23 12:26:35.617 ACCIDENT - PROPERTY DAMAGE
18-0504629 29051 WINDAMERE DR 2018-05-23 12:24:16.010 ATTEMPT TO CONTACT
18-0504628 475 ROBINS ST 2018-05-23 12:14:27.257 ATTEMPT TO CONTACT
18-0504627 18-05721 3320 OLD MORRILTON HWY 2018-05-23 12:13:42.047 DOMESTIC DISTURBANCE
18-0504624 475 ROBINS ST 2018-05-23 12:09:11.787 DISTURBANCE
18-0504622 18-05719 350 SALEM RD 2018-05-23 11:57:47.183 CIVIL MATTER
18-0504619 1105 E OAK ST 2018-05-23 11:41:45.800 ALARM - HOLD UP or PANIC
18-0504617 707 ROBINS ST 2018-05-23 11:25:37.190 SUSPICIOUS PERSON
18-0504615 2500 DAVE WARD DR 2018-05-23 11:19:09.087 CHECK ON THE WELFARE
18-0504614 1485 OLD MORRILTON HWY 2018-05-23 11:08:39.473 SERVING SUBPOENA
18-0504611 1038 HARKRIDER ST 2018-05-23 10:40:07.513 ATTEMPT TO CONTACT
18-0504609 1200 E DAVE WARD DR 2018-05-23 10:28:32.490 CHECK ON THE WELFARE
18-0504607 235 FARRIS RD 2018-05-23 10:14:29.387 ATTEMPT TO CONTACT
18-0504601 715 MILAM DR 2018-05-23 09:58:01.467 AGENCY ASSIST
18-0504598 1101 FENDLEY DR 2018-05-23 09:37:50.803 SUSPICIOUS VEHICLE
18-0504594 18-05716 1601 HOGAN LN 2018-05-23 09:20:51.997 THEFT OF PROPERTY
18-0504589 18-05718 523 CENTER ST 2018-05-23 09:12:30.070 FRAUD
18-0504585 1201 BRUCE ST 2018-05-23 09:02:53.297 TRAFFIC PROBLEM-CONTROL
18-0504584 18-05717 766 HARKRIDER ST 2018-05-23 08:58:45.300 ATTEMPT TO CONTACT
18-0504583 2400 MEADOWLAKE RD 2018-05-23 08:57:53.040 CHECK ON THE WELFARE
18-0504579 318 HUBBARD RD 2018-05-23 08:22:30.273 CHECK ON THE WELFARE
18-0504574 18-05712 1200 E DAVE WARD DR 2018-05-23 08:14:06.853 ACCIDENT - PROPERTY DAMAGE
18-0504573 815 E OAK ST 2018-05-23 08:13:42.173 ATTEMPT TO CONTACT
18-0504571 1105 PRAIRIE ST 2018-05-23 08:04:13.340 ATTEMPT TO CONTACT
18-0504569 1200 COLLEGE AV 2018-05-23 08:00:28.210 TRAFFIC PROBLEM-CONTROL
18-0504562 18-05711 1910 DAVE WARD DR 2018-05-23 07:27:19.313 DISTURBANCE
18-0504557 18-05710 123 LOWER RIDGE RD 2018-05-23 06:44:50.757 BURGLARY
18-0504556 1012 E OAK ST 2018-05-23 06:42:50.353 ALARM
18-0504555 380 HARKRIDER ST 2018-05-23 06:38:20.653 SUPPLEMENT REPORT CALL
18-0504554 1105 PRAIRIE ST 2018-05-23 06:16:28.910 CHECK ON THE WELFARE
18-0504553 18-05709 380 HARKRIDER ST 2018-05-23 05:24:42.560 BATTERY REPORT
18-0504552 1155 SKYLINE DR 2018-05-23 04:22:13.357 CHECKING VEHICLE
18-0504550 1155 SPENCER ST 2018-05-23 03:15:06.763 CHECKING VEHICLE
18-0504549 2000 CROSS ST 2018-05-23 02:58:47.143 CHECKING VEHICLE
18-0504548 401 2ND ST 2018-05-23 02:46:36.207 REPOSSESSION
18-0504546 2300 PRINCE ST 2018-05-23 02:35:22.600 CHECKING VEHICLE
18-0504545 18-05708 1620 BUCKHORN CIR 2018-05-23 01:52:59.317 CHECKING PERSON
18-0504544 1601 HOGAN LN 2018-05-23 01:28:56.537 LOUD NOISE-MUSIC
18-0504543 5 SHADY VALLEY DR 2018-05-23 01:13:17.710 ALARM
18-0504542 3250 JW AND PAT BROWN BLVD 2018-05-23 01:12:05.530 OPEN DOOR/WINDOW/FENCE
18-0504540 2105 DAVE WARD DR 2018-05-23 01:09:46.700 CHECKING PERSON
18-0504539 612 GARLAND ST 2018-05-23 00:46:39.913 ALARM
18-0504535 2840 DAVE WARD DR 2018-05-22 23:54:03.333 THEFT OF SERVICES
18-0504534 2401 CHRISTINA LN 2018-05-22 23:30:54.657 ATTEMPT TO CONTACT
18-0504531 766 HARKRIDER ST 2018-05-22 23:12:43.820 INDECENT EXPOSURE
18-0504530 1105 PRAIRIE ST 2018-05-22 22:40:39.883 FOUND PROPERTY
18-0504529 1525 CLIFTON ST 2018-05-22 22:32:04.620 ATTEMPT TO CONTACT
18-0504528 18-05706 300 S DONAGHEY AV 2018-05-22 22:29:05.390 FRAUD
18-0504526 3850 GRANDVIEW HEIGHTS DR 2018-05-22 22:28:18.370 CHECKING VEHICLE
18-0504525 201 SKYLINE DR 2018-05-22 22:17:43.030 REPOSSESSION
18-0504524 550 SKYLINE DR 2018-05-22 22:16:55.747 INTOXICATED DRIVER
18-0504522 18-05705 2165 BLANEY HILL RD 2018-05-22 22:06:21.907 SHOOTING
18-0504521 2165 BLANEY HILL RD 2018-05-22 22:02:38.480 SHOTS FIRED
18-0504520 18-05704 1210 ADDY BROOK ST 2018-05-22 21:56:51.887 ACCIDENT - PROPERTY DAMAGE
18-0504517 1500 MUSEUM RD 2018-05-22 21:28:46.120 ALARM
18-0504516 1278 S AMITY RD 2018-05-22 21:27:59.740 CHECKING VEHICLE
18-0504515 1290 S AMITY RD 2018-05-22 21:27:01.393 CHECKING VEHICLE
18-0504514 1525 CLIFTON ST 2018-05-22 21:26:41.287 CIVIL STAND BY
18-0504511 1430 ROBINS ST 2018-05-22 21:16:00.270 CRIMINAL MISCHIEF
18-0504508 18-05701 902 S SALEM RD 2018-05-22 20:29:20.927 ACCIDENT - PERSONAL INJURY
18-0504506 18-05700 1 BROWN DR 2018-05-22 20:14:50.867 ATTEMPT TO CONTACT
18-0504505 1405 S DONAGHEY AV 2018-05-22 20:13:36.610 CHECKING BUILDING
18-0504504 1152 WOODSIDE DR 2018-05-22 20:07:47.070 DOMESTIC DISTURBANCE
18-0504499 1899 LEDGELAWN DR 2018-05-22 19:23:54.283 LOG VEHICLE
18-0504498 3870 LEDBETTER DR 2018-05-22 19:23:35.877 TRAFFIC PROBLEM-CONTROL
18-0504497 2410 REMINGTON RD 2018-05-22 19:07:03.340 ATTEMPT TO CONTACT
18-0504496 2455 DONAGHEY AV 2018-05-22 19:01:31.253 ATTEMPT TO CONTACT
18-0504495 18-05699 500 ELSINGER BLVD 2018-05-22 18:57:50.980 ACCIDENT - PRIVATE PROPERTY
18-0504494 100 BROOKSIDE DR 2018-05-22 18:55:17.300 DOMESTIC DISTURBANCE
18-0504493 2213 LEE AV 2018-05-22 18:52:10.283 ATTEMPT TO CONTACT
18-0504492 4715 STOCKTON RD 2018-05-22 18:51:00.613 DOMESTIC DISTURBANCE
18-0504491 475 ROBINS ST 2018-05-22 18:49:22.487 DOMESTIC DISTURBANCE
18-0504490 1025 E SIEBENMORGEN RD 2018-05-22 18:48:28.353 TRESPASSING
18-0504489 100 BROOKSIDE DR 2018-05-22 18:42:12.060 FIRE DEPT ASSIST
18-0504487 1320 TORREYSON ST 2018-05-22 18:37:07.807 SUPPLEMENT REPORT CALL
18-0504486 355 LEDGELAWN DR 2018-05-22 18:34:28.793 ALARM
18-0504485 443 HELEN ST 2018-05-22 18:33:48.760 ATTEMPT TO CONTACT
18-0504484 1605 E OAK ST 2018-05-22 18:32:39.810 ALARM
18-0504483 5190 LIMESTONE DR 2018-05-22 18:31:30.450 ALARM
18-0504482 1406 BRUCE ST 2018-05-22 18:28:45.117 ATTEMPT TO CONTACT
18-0504481 4315 BAY HILL DR 2018-05-22 18:20:02.337 LOUD NOISE-MUSIC
18-0504480 507 BRUCE ST 2018-05-22 18:19:59.747 ATTEMPT TO CONTACT
18-0504479 32 HUMMINGBIRD LN 2018-05-22 17:57:16.450 CIVIL MATTER
18-0504478 18-05698 1895 E OAK ST 2018-05-22 17:50:51.360 ACCIDENT - PROPERTY DAMAGE
18-0504477 2815 STONEBROOK CV 2018-05-22 17:37:15.307 CHECK ON THE WELFARE
18-0504476 18-05697 875 SKYLINE DR 2018-05-22 17:34:39.617 CRIMINAL MISCHIEF
18-0504474 4300 BAY HILL DR 2018-05-22 17:15:58.547 CHECKING VEHICLE
18-0504473 375 MONROE ST 2018-05-22 17:07:19.430 HARASSMENT
18-0504472 18-05696 125 I40WB 2018-05-22 17:01:17.863 ACCIDENT - PROPERTY DAMAGE
18-0504471 201 SKYLINE DR 2018-05-22 17:00:38.037 SUPPLEMENT REPORT CALL
18-0504470 1715 TYLER ST 2018-05-22 16:43:52.877 BURGLARY
18-0504467 18-05695 2500 DAVE WARD DR 2018-05-22 16:32:43.467 ACCIDENT - PROPERTY DAMAGE
18-0504466 18-05694 900 SOUTH GERMAN LN 2018-05-22 16:30:21.770 ACCIDENT - HIT AND RUN
18-0504465 2018-05-22 16:22:47.957 CIVIL MATTER
18-0504464 18-05693 2051 HARKRIDER ST 2018-05-22 16:15:08.967 FORGERY
18-0504463 1615 E OAK ST 2018-05-22 16:13:55.380 SUPPLEMENT REPORT CALL
18-0504462 1629 SOUTH BLVD 2018-05-22 16:12:18.750 911 HANGUP CALL
18-0504461 18-05692 1615 WESTLAKE DR 2018-05-22 16:03:58.510 HARASSING COMMUNICATIONS
18-0504460 2018-05-22 16:02:59.120 ATTEMPT TO CONTACT
18-0504457 18-05690 545 E DAVE WARD DR 2018-05-22 15:33:30.547 ATTEMPT TO CONTACT
18-0504456 1105 PRAIRIE ST 2018-05-22 15:27:33.377 ATTEMPT TO CONTACT
18-0504455 18-05691 1615 E OAK ST 2018-05-22 15:24:18.700 MISDEMEANOR WARRANT SERVICE
18-0504453 18-05689 26 ROSANNE DR 2018-05-22 15:08:09.843 TRESPASSING
18-0504451 18-05687 1105 SKYLINE DR 2018-05-22 15:01:59.773 ATTEMPT TO CONTACT
18-0504450 20 KINLEY DR 2018-05-22 15:00:55.487 CHECK ON THE WELFARE
18-0504448 500 SALEM RD 2018-05-22 14:58:39.390 FIRE DEPT ASSIST
18-0504447 1105 SKYLINE DR 2018-05-22 14:55:31.343 ATTEMPT TO CONTACT
18-0504446 1701 SALEM RD 2018-05-22 14:52:31.270 TRAFFIC LIGHT PROBLEM
18-0504445 800 5TH ST 2018-05-22 14:50:44.030 ATTEMPT TO CONTACT
18-0504442 2900 PRINCE ST 2018-05-22 14:43:24.337 CHECK ON THE WELFARE
18-0504441 4550 OLD MORRILTON HWY 2018-05-22 14:40:36.570 DOMESTIC DISTURBANCE
18-0504440 101 OAK ST 2018-05-22 14:28:18.520 THEFT OF PROPERTY
18-0504439 5120 BURNT PINE DR 2018-05-22 14:28:05.060 ANIMAL BITE
18-0504437 1919 TORREYSON ST 2018-05-22 14:23:59.040 SUPPLEMENT REPORT CALL
18-0504436 610 MILAM DR 2018-05-22 14:22:21.383 AGENCY ASSIST
18-0504435 88 HWY 25 N 2018-05-22 14:20:29.670 FIRE-SQUAD CALLOUT
18-0504434 3100 IRBY DR 2018-05-22 14:18:58.033 TRAFFIC PROBLEM-CONTROL
18-0504432 503 SIEBENMORGEN RD 2018-05-22 14:02:23.157 RECKLESS DRIVER
18-0504431 2018-05-22 14:00:39.850 TERRORISTIC THREATENING
18-0504428 18-05684 600 SKYLINE DR 2018-05-22 13:53:00.703 ACCIDENT - PROPERTY DAMAGE
18-0504423 18-05685 1052 HARRISON ST 2018-05-22 13:45:58.637 ACCIDENT - PRIVATE PROPERTY
18-0504420 18-05683 2500 DAVE WARD DR 2018-05-22 13:37:02.173 ACCIDENT - PROPERTY DAMAGE
18-0504412 1835 LUCILLE ST 2018-05-22 13:22:12.707 ASSAULT
18-0504411 2050 DAVE WARD DR 2018-05-22 13:20:28.670 AGENCY ASSIST
18-0504410 18-05681 1238 MCNUTT RD 2018-05-22 12:56:36.170 THEFT OF PROPERTY
18-0504409 18-05680 2018-05-22 12:49:49.393 ACCIDENT - PROPERTY DAMAGE
18-0504408 1135 ASH ST 2018-05-22 12:49:36.663 CIVIL MATTER
18-0504406 235 FARRIS RD 2018-05-22 12:28:23.070 SUPPLEMENT REPORT CALL
18-0504405 18-05678 150 E OAK ST 2018-05-22 12:27:22.930 CHECK ON THE WELFARE
18-0504404 18-05676 1320 TORREYSON ST 2018-05-22 12:18:31.257 TERRORISTIC THREATENING
18-0504402 2085 KEATHLEY DR 2018-05-22 12:16:05.177 SUSPICIOUS VEHICLE
18-0504401 18-05675 501 ELSINGER BLVD 2018-05-22 12:01:33.507 SHOPLIFTING
18-0504400 2255 STURGIS RD 2018-05-22 11:58:34.107 FIRE DEPT ASSIST
18-0504397 18-05672 523 HARKRIDER ST 2018-05-22 11:36:17.480 ACCIDENT - PROPERTY DAMAGE
18-0504394 2018-05-22 11:24:32.393 RECOVERED VEHICLE
18-0504392 1001 MCNUTT RD 2018-05-22 11:13:01.567 ATTEMPT TO CONTACT
18-0504388 400 6TH ST 2018-05-22 11:01:47.553 CHECKING PERSON
18-0504385 18-05671 2280 SANDERS ST 2018-05-22 10:43:29.870 THEFT OF PROPERTY
18-0504383 18-05670 1017 WATKINS ST 2018-05-22 10:37:57.537 BATTERY REPORT
18-0504382 1802 BERRY PLACE DR 2018-05-22 10:34:07.463 ALARM
18-0504381 1199 MORNINGSIDE DR 2018-05-22 10:31:25.377 ATTEMPT TO CONTACT
18-0504380 1105 SKYLINE DR 2018-05-22 10:27:31.340 DISTURBANCE
18-0504379 502 E 6TH ST 2018-05-22 10:21:42.533 ACCIDENT - PROPERTY DAMAGE
18-0504377 18-05668 2840 DAVE WARD DR 2018-05-22 10:14:15.960 CRIMINAL MISCHIEF
18-0504376 18-05669 400 CENTRAL LANDING BLVD 2018-05-22 10:09:59.630 ACCIDENT - PERSONAL INJURY
18-0504375 18-05665 1155 SKYLINE DR 2018-05-22 10:06:52.677 ACCIDENT - PRIVATE PROPERTY
18-0504373 2018-05-22 09:56:52.707 RECOVERED VEHICLE
18-0504372 2310 ROBINSON AV 2018-05-22 09:52:04.910 CHECK ON THE WELFARE
18-0504371 18-05667 10 LOWER RIDGE RD 2018-05-22 09:51:37.860 ACCIDENT - PRIVATE PROPERTY
18-0504370 18-05666 1017 WATKINS ST 2018-05-22 09:41:34.440 ATTEMPT TO CONTACT
18-0504369 5315 LOVETTE CV 2018-05-22 09:40:26.453 VEHICLE TOW
18-0504368 510 SOUTH GERMAN LN 2018-05-22 09:38:37.783 MISDEMEANOR WARRANT SERVICE
18-0504367 309 CLUB LN 2018-05-22 09:28:17.967 COMPUTER CRIMES
18-0504366 1820 LUCILLE ST 2018-05-22 09:26:06.910 911 HANGUP CALL
18-0504365 2420 BROADVIEW AV 2018-05-22 09:11:57.083 SUSPICIOUS VEHICLE
18-0504364 835 S DONAGHEY AV 2018-05-22 09:04:44.160 CIVIL STAND BY
18-0504359 704 4TH AV 2018-05-22 08:58:31.577 ABANDONED VEHICLE
18-0504357 1620 MIDDLE RD 2018-05-22 08:49:58.373 ATTEMPT TO CONTACT
18-0504355 1620 MIDDLE RD 2018-05-22 08:44:39.520 CHECKING VEHICLE
18-0504352 18-05663 315 SHAW ST 2018-05-22 08:34:51.000 HARASSING COMMUNICATIONS
18-0504351 810 PARKWAY ST 2018-05-22 08:31:46.463 ALARM
18-0504348 18-05662 550 E DAVE WARD DR 2018-05-22 08:12:37.797 ACCIDENT - PROPERTY DAMAGE
18-0504346 2013 CALDWELL ST 2018-05-22 08:11:11.620 BARKING DOG COMPLAINT
18-0504345 150 E OAK ST 2018-05-22 08:09:42.917 SUPPLEMENT REPORT CALL
18-0504344 811 E OAK ST 2018-05-22 08:08:54.290 CHECKING VEHICLE
18-0504341 375 E OAK ST 2018-05-22 07:57:00.453 CHECKING VEHICLE
18-0504340 1014 MAIN ST 2018-05-22 07:49:45.407 ALARM
18-0504339 18-05661 3501 COLLEGE AV 2018-05-22 07:47:11.993 ABUSE
18-0504337 1865 MILESTONE DR 2018-05-22 07:45:30.873 CRIMINAL MISCHIEF
18-0504336 2475 CHRISTINA LN 2018-05-22 07:15:26.400 CHECK ON THE WELFARE
18-0504335 1012 E OAK ST 2018-05-22 07:10:50.340 ALARM
18-0504332 4550 OLD MORRILTON HWY 2018-05-22 05:58:13.690 ALARM
18-0504330 2080 BROADVIEW AV 2018-05-22 04:16:37.030 BURGLARY
18-0504328 1405 S DONAGHEY AV 2018-05-22 04:02:00.260 CHECKING VEHICLE
18-0504326 605 SALEM RD 2018-05-22 03:55:01.613 CHECKING VEHICLE
18-0504325 475 ROBINS ST 2018-05-22 03:29:29.523 CHECKING PERSON
18-0504324 1170 S AMITY RD 2018-05-22 03:11:19.450 ALARM
18-0504323 2080 BROADVIEW AV 2018-05-22 03:10:52.230 BURGLARY
18-0504322 475 ROBINS ST 2018-05-22 03:02:40.883 TRESPASSING
18-0504321 810 MUSEUM RD 2018-05-22 02:44:26.473 SUSPICIOUS PERSON
18-0504320 2018-05-22 02:27:31.167 RECOVERED VEHICLE
18-0504319 2730 DAVE WARD DR 2018-05-22 01:47:50.950 CHECKING VEHICLE
18-0504316 1105 SKYLINE DR 2018-05-22 01:08:14.510 SUSPICIOUS ACTIVITY
18-0504315 2420 BROADVIEW AV 2018-05-22 01:04:40.333 CHECKING VEHICLE
18-0504314 217 S CENTER ST 2018-05-22 01:02:58.683 CHECKING VEHICLE
18-0504313 1501 HARKRIDER ST 2018-05-22 00:56:44.120 CHECKING VEHICLE
18-0504312 818 4TH ST 2018-05-22 00:45:35.647 CHECKING VEHICLE
18-0504311 1950 HARKRIDER ST 2018-05-22 00:44:42.543 DOMESTIC DISTURBANCE
18-0504310 1210 DONAGHEY AV 2018-05-22 00:42:00.457 UNKNOWN TROUBLE
18-0504308 1655 DAVE WARD DR 2018-05-22 00:34:17.563 CHECKING VEHICLE
18-0504307 1155 SKYLINE DR 2018-05-22 00:30:24.840 CHECKING VEHICLE
18-0504306 1600 WESTLAKE DR 2018-05-22 00:11:25.440 CHECKING VEHICLE
18-0504305 300 S DONAGHEY AV 2018-05-22 00:08:46.863 CHECKING VEHICLE
18-0504304 2555 SAPPHIRE DR 2018-05-22 00:04:44.043 FIRE DEPT ASSIST
18-0504300 1720 JOHN BRYANT DR 2018-05-21 23:28:57.507 PROWLER
18-0504299 18-05658 2900 PRINCE ST 2018-05-21 23:28:25.150 DISORDERLY CONDUCT
18-0504298 2325 DAVE WARD DR 2018-05-21 23:22:54.313 CHECKING PERSON
18-0504297 2665 DONAGHEY AV 2018-05-21 23:06:51.200 ALARM
18-0504296 1025 S DONAGHEY AV 2018-05-21 23:00:56.167 CHECKING PERSON
18-0504295 13 ROSEMOUNT DR 2018-05-21 22:48:51.173 TRESPASSING
18-0504294 18-05657 801 HOGAN LN 2018-05-21 22:37:29.440 CHECKING PERSON
18-0504292 1104 CLIFTON ST 2018-05-21 22:34:04.423 LOUD NOISE-MUSIC
18-0504291 2400 DONAGHEY AV 2018-05-21 22:31:43.850 RECKLESS DRIVER
18-0504290 1940 JAGUAR DR 2018-05-21 22:23:57.930 CHECKING PERSON
18-0504288 1620 MIDDLE RD 2018-05-21 22:14:05.773 STALLED VEHICLE
18-0504287 1379 BRUCE ST 2018-05-21 22:12:19.380 PROWLER
18-0504286 201 SKYLINE DR 2018-05-21 22:04:20.200 CHECKING PERSON
18-0504285 315 SHAW ST 2018-05-21 22:03:12.637 TERRORISTIC THREATENING
18-0504284 18-05655 2101 PRINCE ST 2018-05-21 21:59:40.660 ROAD RAGE
18-0504283 1405 S DONAGHEY AV 2018-05-21 21:56:51.223 LOUD NOISE-MUSIC
18-0504281 1000 MORNINGSIDE DR 2018-05-21 21:53:16.173 SUPPLEMENT REPORT CALL
18-0504280 260 SALEM RD 2018-05-21 21:43:58.183 CHECKING VEHICLE
18-0504279 18-05654 1701 HAIRSTON AV 2018-05-21 21:38:29.920 DOMESTIC DISTURBANCE
18-0504277 2400 KRYSTAL KREEK DR 2018-05-21 21:29:56.297 SUSPICIOUS PERSON
18-0504275 86 MARY LN 2018-05-21 21:28:50.540 CHECKING BUILDING
18-0504274 3196 COLLEGE AV 2018-05-21 21:19:31.177 CHECKING VEHICLE
18-0504273 2125 HARKRIDER ST 2018-05-21 21:16:02.710 CHECKING VEHICLE
18-0504272 1701 STURGIS RD 2018-05-21 21:11:32.637 CHECKING VEHICLE
18-0504269 415 DURHAM ST 2018-05-21 20:51:13.473 LOUD NOISE-MUSIC
18-0504268 1929 CALDWELL ST 2018-05-21 20:45:16.260 CHECK ON THE WELFARE
18-0504267 400 S DONAGHEY AV 2018-05-21 20:35:48.220 DISTURBANCE
18-0504265 4350 HARVARD AVE 2018-05-21 20:11:49.590 TRESPASSING
18-0504264 201 SKYLINE DR 2018-05-21 20:07:37.663 SUSPICIOUS PERSON
18-0504261 18-05652 500 OAK ST 2018-05-21 19:54:58.410 HARASSMENT
18-0504260 18-05653 4715 STOCKTON RD 2018-05-21 19:50:34.080 BATTERY REPORT
18-0504259 452 CORPORATE DR 2018-05-21 19:50:02.240 TRESPASSING
18-0504258 1303 DONAGHEY AV 2018-05-21 19:42:17.430 SUPPLEMENT REPORT CALL
18-0504257 2105 MEADOWLAKE RD 2018-05-21 19:38:37.013 ATTEMPT TO CONTACT
18-0504256 1445 HOGAN LN 2018-05-21 19:14:04.873 ALARM - BANK
18-0504255 18-05651 575 ELSINGER BLVD 2018-05-21 19:04:15.043 THEFT OF PROPERTY
18-0504253 2413 JESSICA DR 2018-05-21 18:56:53.070 FIRE DEPT ASSIST
18-0504252 1425 ROBINS ST 2018-05-21 18:52:35.430 PARKING VIOLATION
18-0504251 650 ELSINGER BLVD 2018-05-21 18:34:16.017 CITIZEN ASSIST
18-0504250 3970 RUPERT DR 2018-05-21 18:27:35.930 BURGLARY
18-0504249 1306 COLLIER DR 2018-05-21 18:22:48.090 911 HANGUP CALL
18-0504248 2060 MASSEE GARDENS 2018-05-21 18:19:31.323 ALARM
18-0504247 2105 MEADOWLAKE RD 2018-05-21 18:18:35.630 SUPPLEMENT REPORT CALL
18-0504246 18-05650 2165 HARKRIDER ST 2018-05-21 18:01:16.773 ACCIDENT - PROPERTY DAMAGE
18-0504245 2060 MASSEE GARDENS 2018-05-21 17:57:06.300 ALARM
18-0504244 1105 PRAIRIE ST 2018-05-21 17:55:30.747 ATTEMPT TO CONTACT
18-0504243 18-05649 150 E OAK ST 2018-05-21 17:54:27.880 LOST PROPERTY
18-0504242 3430 IRBY DR 2018-05-21 17:50:21.943 AGENCY ASSIST
18-0504241 2080 BROADVIEW AV 2018-05-21 17:48:36.663 TRESPASSING
18-0504240 2515 W MARTIN ST 2018-05-21 17:47:59.020 DOMESTIC DISTURBANCE
18-0504238 1155 PARKWAY ST 2018-05-21 17:23:24.913 TRESPASSING
18-0504237 1399 COLLIER DR 2018-05-21 17:21:48.893 CHECK ON THE WELFARE
18-0504236 404 WATKINS ST 2018-05-21 17:20:07.833 CIVIL STAND BY
18-0504235 475 ROBINS ST 2018-05-21 17:18:15.433 UNKNOWN TROUBLE
18-0504233 1410 STORIE DR 2018-05-21 17:02:20.103 ATTEMPT TO CONTACT
18-0504231 600 E DAVE WARD DR 2018-05-21 16:53:24.140 RECKLESS DRIVER
18-0504230 2510 REMINGTON RD 2018-05-21 16:52:29.943 SUSPICIOUS PERSON
18-0504229 1006 SALEM RD 2018-05-21 16:51:20.007 ATTEMPT TO CONTACT
18-0504228 1511 MILL ST 2018-05-21 16:37:27.870 DISTURBANCE
18-0504225 18-05647 2235 E OAK ST 2018-05-21 16:22:42.493 ACCIDENT - PROPERTY DAMAGE
18-0504222 404 WATKINS ST 2018-05-21 16:19:22.060 TERRORISTIC THREATENING
18-0504220 18-05644 3333 DAVE WARD DR 2018-05-21 16:09:02.230 BREAKING OR ENTERING
18-0504219 2402 PARKWOOD DR 2018-05-21 16:04:57.380 ATTEMPT TO CONTACT
18-0504218 18-05645 2300 PRINCE ST 2018-05-21 15:58:10.043 RUNAWAY
18-0504217 18-05646 1601 HOGAN LN 2018-05-21 15:56:00.903 LOST PROPERTY
18-0504216 1621 DONAGHEY AV 2018-05-21 15:52:13.187 CITIZEN ASSIST
18-0504215 601 DAVE WARD DR 2018-05-21 15:49:12.003 ACCIDENT - HIT AND RUN
18-0504214 18-05643 621 OAK ST 2018-05-21 15:31:10.043 FRAUD
18-0504213 18-05642 1201 OLD MORRILTON HWY 2018-05-21 15:29:39.920 ACCIDENT - PERSONAL INJURY
18-0504210 2900 DAVE WARD DR 2018-05-21 15:21:35.843 STALLED VEHICLE
18-0504208 1080 PAT'S LN 2018-05-21 15:14:08.287 THEFT OF PROPERTY
18-0504207 550 FRONT ST 2018-05-21 15:02:47.053 TRAFFIC PROBLEM-CONTROL
18-0504206 18-05641 3075 SASSY RD 2018-05-21 14:58:39.260 TRESPASSING
18-0504204 710 S HARKRIDER DR 2018-05-21 14:43:12.460 ATTEMPT TO CONTACT
18-0504202 10 LOWER RIDGE RD 2018-05-21 14:40:02.340 SUSPICIOUS ACTIVITY
18-0504201 3240 PEBBLE BEACH DR 2018-05-21 14:38:45.600 SUPPLEMENT REPORT CALL
18-0504198 18-05639 1600 WESTLAKE DR 2018-05-21 14:22:16.543 HARASSMENT
18-0504197 245 OAK ST 2018-05-21 14:21:03.003 CRIMINAL MISCHIEF
18-0504196 1399 SUNSET DR 2018-05-21 14:10:26.683 ATTEMPT TO CONTACT
18-0504195 18-05637 905 SKYLINE DR 2018-05-21 14:10:11.800 THEFT OF PROPERTY
18-0504193 500 S EAST GERMAN LN 2018-05-21 14:08:10.990 CITIZEN ASSIST
18-0504192 1200 GUM ST 2018-05-21 14:07:28.260 DISTURBANCE
18-0504191 18-05640 405 HOGAN LN 2018-05-21 13:54:43.940 LOST PROPERTY
18-0504190 705 MUSEUM RD 2018-05-21 13:48:51.327 DOMESTIC DISTURBANCE
18-0504189 18-05634 1135 CHAMPIONS DR 2018-05-21 13:43:58.930 THEFT OF PROPERTY
18-0504188 18-05635 311 ANGUS ST 2018-05-21 13:39:09.000 DOMESTIC DISTURBANCE
18-0504187 2018-05-21 13:31:50.257 SERVING SUBPOENA
18-0504185 500 SOUTH GERMAN LN 2018-05-21 13:20:37.680 ATTEMPT TO CONTACT
18-0504183 1115 COLLEGE AV 2018-05-21 13:18:10.710 SUPPLEMENT REPORT CALL
18-0504182 18-05633 3576 PRINCE ST 2018-05-21 13:13:16.143 ACCIDENT - PERSONAL INJURY
18-0504181 1701 HAIRSTON AV 2018-05-21 13:09:21.970 CHECK ON THE WELFARE
18-0504179 1870 S SALEM RD 2018-05-21 13:01:30.137 SUPPLEMENT REPORT CALL
18-0504178 18-05630 705 CHERUB DR 2018-05-21 12:59:45.553 CRIMINAL MISCHIEF
18-0504177 18-05632 3310 PEBBLE BEACH DR 2018-05-21 12:57:31.657 THEFT OF PROPERTY
18-0504176 18-05631 315 SHAW ST 2018-05-21 12:54:03.657 SHOTS FIRED
18-0504171 18-05629 545 SKYLINE DR 2018-05-21 12:33:50.873 ACCIDENT - PROPERTY DAMAGE
18-0504168 705 CHERUB DR 2018-05-21 12:12:22.197 SUPPLEMENT REPORT CALL
18-0504166 2700 ALLYSON LN 2018-05-21 11:53:51.110 CITIZEN ASSIST
18-0504164 1613 WESTLAKE DR 2018-05-21 11:41:36.447 THEFT OF IDENTITY
18-0504158 2018-05-21 11:11:16.983 ATTEMPT TO CONTACT
18-0504157 3075 SASSY RD 2018-05-21 11:06:41.153 DOMESTIC DISTURBANCE
18-0504154 655 ELSINGER BLVD 2018-05-21 10:43:59.200 SERVING SUBPOENA
18-0504151 18-05628 2600 ADAMSBROOKE DR 2018-05-21 10:01:14.467 ACCIDENT - PROPERTY DAMAGE
18-0504150 2915 PEBBLE BEACH DR 2018-05-21 09:57:25.373 SUPPLEMENT REPORT CALL
18-0504148 18-05625 1222 GIST ST 2018-05-21 09:50:51.547 HARASSMENT
18-0504147 2713 PRINCE ST 2018-05-21 09:44:23.987 911 HANGUP CALL
18-0504146 18-05622 621 OAK ST 2018-05-21 09:33:16.217 FORGERY
18-0504145 18-05624 1730 TUSCANY DR 2018-05-21 09:26:56.160 DOMESTIC DISTURBANCE
18-0504140 1701 DAVE WARD DR 2018-05-21 09:08:15.670 VEHICLE TOW
18-0504139 2210 CEDAR OAKS DR 2018-05-21 09:05:03.943 SERVING SUBPOENA
18-0504138 2105 MEADOWLAKE RD 2018-05-21 09:02:25.910 CIVIL MATTER
18-0504136 406 WILLOW ST 2018-05-21 08:57:37.850 SERVING SUBPOENA
18-0504135 2305 WEST ST 2018-05-21 08:56:57.463 SERVING SUBPOENA
18-0504134 18-05621 500 ELSINGER BLVD 2018-05-21 08:48:14.763 DISTURBANCE
18-0504133 2210 CEDAR OAKS DR 2018-05-21 08:42:56.743 SERVING SUBPOENA
18-0504132 406 WILLOW ST 2018-05-21 08:41:16.080 ATTEMPT TO CONTACT
18-0504130 18-05620 14 SHADY VALLEY DR 2018-05-21 08:27:46.003 BREAKING OR ENTERING
18-0504127 1020 TRILLIUM DR 2018-05-21 07:23:59.037 HARASSMENT
18-0504124 18-05619 410 6TH ST 2018-05-21 06:58:47.337 HARASSMENT
18-0504122 375 MONROE ST 2018-05-21 06:00:06.003 CHECKING VEHICLE
18-0504121 207 WILLOW ST 2018-05-21 05:31:30.783 ATTEMPT TO CONTACT
18-0504117 620 ELSINGER BLVD 2018-05-21 03:55:10.497 ALARM
18-0504115 1600 CENTENNIAL CLUB DR 2018-05-21 03:23:13.813 CHECKING BUILDING
18-0504113 875 CRESTLINER DR 2018-05-21 02:19:14.237 CHECKING PERSON
18-0504112 615 2ND ST 2018-05-21 02:11:31.547 CHECKING VEHICLE
18-0504111 1105 PRAIRIE ST 2018-05-21 02:10:17.803 CHECKING PERSON
18-0504110 1555 EXCHANGE AV 2018-05-21 02:04:19.060 ATTEMPT TO CONTACT
18-0504109 2018-05-21 02:01:41.573 ATTEMPT TO CONTACT
18-0504108 18-05617 2260 SANDERS ST 2018-05-21 01:28:53.520 BATTERY REPORT
18-0504104 1155 FRONT ST 2018-05-21 00:55:00.613 CHECKING PERSON
18-0504103 1700 EAST GERMAN LN 2018-05-21 00:53:26.077 ACCIDENT - PROPERTY DAMAGE
18-0504100 2310 ROBINSON AV 2018-05-21 00:37:04.660 CHECKING PERSON
18-0504099 5100 DAVE WARD DR 2018-05-21 00:33:12.403 CHECKING VEHICLE
18-0504098 6195 DAVE WARD DR 2018-05-21 00:19:36.070 CHECKING VEHICLE
18-0504097 1155 SKYLINE DR 2018-05-21 00:03:04.750 CHECKING VEHICLE
18-0504096 1209 INGRAM ST 2018-05-20 23:52:25.917 CHECKING VEHICLE
18-0504095 1 CADRON SETTLEMENT PARK RD 2018-05-20 23:38:42.247 CHECKING BUILDING
18-0504094 2330 SANDERS ST 2018-05-20 23:33:55.260 INTOXICATED PERSON
18-0504093 300 S DONAGHEY AV 2018-05-20 23:30:02.550 CHECK ON THE WELFARE
18-0504091 1012 E OAK ST 2018-05-20 23:23:18.563 ALARM
18-0504088 1115 SALEM RD 2018-05-20 22:47:43.697 REPOSSESSION
18-0504087 1001 MCNUTT RD 2018-05-20 22:42:56.370 CIVIL STAND BY
18-0504083 1001 MCNUTT RD 2018-05-20 22:26:27.657 CIVIL STAND BY
18-0504082 125 I40WB 2018-05-20 22:11:49.577 CHECK ON THE WELFARE
18-0504079 574 LOCUST AV 2018-05-20 21:53:52.657 ALARM
18-0504077 321 HEREFORD ST 2018-05-20 21:42:00.503 CIVIL STAND BY
18-0504075 5400 LOST CANYON DR 2018-05-20 21:24:38.263 LOUD NOISE-MUSIC
18-0504074 500 POLK ST 2018-05-20 21:16:30.253 SUSPICIOUS PERSON
18-0504073 1525 CLIFTON ST 2018-05-20 21:11:36.283 CIVIL MATTER
18-0504068 126 I40EB 2018-05-20 20:44:07.877 ACCIDENT - PROPERTY DAMAGE
18-0504067 1155 SKYLINE DR 2018-05-20 20:43:48.907 LOST PROPERTY
18-0504066 126 I40EB 2018-05-20 20:30:59.407 AGENCY ASSIST
18-0504065 18-05610 1405 S DONAGHEY AV 2018-05-20 20:23:11.087 TRESPASSING
18-0504064 1815 PRINCE ST 2018-05-20 20:15:28.163 ROAD RAGE
18-0504063 18-05609 375 MONROE ST 2018-05-20 20:14:01.503 BATTERY REPORT
18-0504062 618 4TH AV 2018-05-20 20:13:26.590 DISTURBANCE
18-0504059 1710 S SALEM RD 2018-05-20 20:04:47.490 CRIMINAL MISCHIEF
18-0504058 18-05607 2010 RICH SMITH LN 2018-05-20 19:53:09.797 ACCIDENT - PRIVATE PROPERTY
18-0504052 1525 CLIFTON ST 2018-05-20 18:47:46.993 CIVIL MATTER
18-0504049 18-05605 1660 JACKSON DR 2018-05-20 18:36:19.970 INTERFERENCE WITH CUSTODY
18-0504048 124 I40WB 2018-05-20 18:30:54.940 ATTEMPT TO CONTACT
18-0504047 20 KINLEY DR 2018-05-20 18:21:08.430 CHECK ON THE WELFARE
18-0504046 1115 PARKWAY ST 2018-05-20 18:13:21.857 TRESPASSING
18-0504045 225 TILK RD 2018-05-20 18:00:42.790 ALARM
18-0504044 4515 HAWKINS DR 2018-05-20 17:56:33.170 SHOTS FIRED
18-0504043 18-05604 1260 S AMITY RD 2018-05-20 17:56:04.543 SHOPLIFTING
18-0504042 1555 EXCHANGE AV 2018-05-20 17:51:57.653 ROAD RAGE
18-0504041 18-05602 621 E OAK ST 2018-05-20 17:36:15.303 FRAUD
18-0504040 18-05603 801 ELSINGER BLVD 2018-05-20 17:34:51.200 FRAUD
18-0504036 18-05601 955 SOUTH GERMAN LN 2018-05-20 16:17:51.220 BURGLARY
18-0504035 1001 MCNUTT RD 2018-05-20 16:11:48.310 CIVIL STAND BY
18-0504034 715 MILAM DR 2018-05-20 15:45:49.620 CIVIL MATTER
18-0504032 235 FARRIS RD 2018-05-20 15:13:01.097 SUPPLEMENT REPORT CALL
18-0504031 18-05600 501 ELSINGER BLVD 2018-05-20 15:12:46.387 FRAUD
18-0504030 1001 MCNUTT RD 2018-05-20 15:08:29.497 SERVING SUBPOENA
18-0504029 201 SKYLINE DR 2018-05-20 14:56:30.917 ATTEMPT TO CONTACT
18-0504027 18-05599 1839 TYLER ST 2018-05-20 14:32:46.473 DOMESTIC DISTURBANCE
18-0504021 18-05598 2080 BROADVIEW AV 2018-05-20 13:56:57.483 HARASSMENT
18-0504020 18-05597 1000 EAST GERMAN LN 2018-05-20 13:53:06.943 ACCIDENT - PERSONAL INJURY
18-0504016 2125 HARKRIDER ST 2018-05-20 13:13:28.927 OPEN DOOR/WINDOW/FENCE
18-0504015 47 FRANCES DR 2018-05-20 13:04:22.450 CIVIL MATTER
18-0504014 18-05596 699 CENTRAL LANDING BLVD 2018-05-20 12:59:17.963 ACCIDENT - PROPERTY DAMAGE
18-0504013 2325 DAVE WARD DR 2018-05-20 12:54:08.250 DOMESTIC DISTURBANCE
18-0504012 18-05595 1870 S SALEM RD 2018-05-20 12:40:15.427 THEFT OF PROPERTY
18-0504009 823 OAK ST 2018-05-20 12:12:03.590 STALLED VEHICLE
18-0504007 406 WILLOW ST 2018-05-20 11:46:33.170 SERVING SUBPOENA
18-0504006 1506 HAIRSTON PL 2018-05-20 11:24:20.170 SERVING SUBPOENA
18-0504005 1516 COLLEGE AV 2018-05-20 11:11:41.620 SERVING SUBPOENA
18-0504004 18-05594 1155 SKYLINE DR 2018-05-20 11:10:54.913 TRESPASSING
18-0504003 1825 PEARCE ST 2018-05-20 10:55:27.710 911 HANGUP CALL
18-0504002 2430 SANDERS ST 2018-05-20 10:23:05.957 HARASSMENT
18-0503999 18-05593 1017 WATKINS ST 2018-05-20 10:00:17.157 THEFT OF PROPERTY
18-0503998 5105 LOST CANYON DR 2018-05-20 09:34:44.083 ALARM
18-0503996 1055 CROSSPOINT RD 2018-05-20 09:13:53.703 ATTEMPT TO CONTACT
18-0503994 18-05592 2915 PEBBLE BEACH DR 2018-05-20 08:37:21.377 FRAUD
18-0503991 201 SKYLINE DR 2018-05-20 08:31:41.540 ALARM
18-0503990 18-05591 107 CLUB LN 2018-05-20 08:20:13.787 DOMESTIC DISTURBANCE
18-0503987 1305 DAVE WARD DR 2018-05-20 07:57:45.840 ALARM
18-0503986 18-05589 2450 T J DR 2018-05-20 07:42:37.857 BREAKING OR ENTERING
18-0503985 201 SKYLINE DR 2018-05-20 07:30:22.710 CHECKING VEHICLE
18-0503984 201 SKYLINE DR 2018-05-20 07:09:35.183 ALARM
18-0503983 18-05588 107 ROBINWOOD DR 2018-05-20 06:59:15.400 DOMESTIC DISTURBANCE
18-0503982 2505 BLANEY HILL RD 2018-05-20 06:28:58.823 DOMESTIC DISTURBANCE
18-0503981 2400 MARKET PLAZA DR 2018-05-20 06:06:40.957 REPOSSESSION
18-0503980 475 ROBINS ST 2018-05-20 06:02:41.540 LOUD NOISE-MUSIC
18-0503979 701 REEDY RD 2018-05-20 05:27:47.783 THEFT OF PROPERTY
18-0503978 2102 WEST ST 2018-05-20 05:23:06.500 REPOSSESSION
18-0503977 18-05587 500 SOUTH GERMAN LN 2018-05-20 04:45:22.360 MISDEMEANOR WARRANT SERVICE
18-0503976 650 ELSINGER BLVD 2018-05-20 04:38:30.000 ALARM
18-0503975 1555 EXCHANGE AV 2018-05-20 04:38:03.290 ATTEMPT TO CONTACT
18-0503974 1405 ROBINS ST 2018-05-20 04:31:26.247 CHECKING VEHICLE
18-0503973 18-05586 2018-05-20 04:26:45.363 EVIDENCE LOG
18-0503972 2405 WASHINGTON AV 2018-05-20 04:26:32.277 DISTURBANCE
18-0503969 20 KINLEY DR 2018-05-20 03:38:59.743 CHECKING VEHICLE
18-0503968 20 KINLEY DR 2018-05-20 03:35:24.600 CHECKING VEHICLE
18-0503967 18-05585 2840 DAVE WARD DR 2018-05-20 03:30:06.713 CRIMINAL MISCHIEF
18-0503966 2905 PEBBLE BEACH DR 2018-05-20 03:26:36.017 LOUD NOISE-MUSIC
18-0503965 20 KINLEY DR 2018-05-20 03:20:05.323 CHECKING VEHICLE
18-0503964 1501 EAST GERMAN LN 2018-05-20 03:06:05.963 CIVIL MATTER
18-0503963 107 ROBINWOOD DR 2018-05-20 03:00:57.640 AGENCY ASSIST
18-0503962 607 OAK ST 2018-05-20 02:52:45.917 CHECKING PERSON
18-0503961 334 OLIVER ST 2018-05-20 02:49:01.880 CHECK ON THE WELFARE
18-0503960 2101 TYLER ST 2018-05-20 02:34:35.427 STALLED VEHICLE
18-0503957 455 2ND ST 2018-05-20 02:06:36.083 ATTEMPT TO CONTACT
18-0503956 1775 OLD MORRILTON HWY 2018-05-20 01:58:20.103 DISTURBANCE
18-0503954 1075 HOGAN LN 2018-05-20 01:51:41.453 TRAFFIC PROBLEM-CONTROL
18-0503953 18-05584 2125 HARKRIDER ST 2018-05-20 01:32:07.173 CHECKING PERSON
18-0503952 1845 OLD MORRILTON HWY 2018-05-20 01:08:28.420 DISTURBANCE
18-0503951 3290 NOB HILL DR 2018-05-20 00:55:23.397 SUSPICIOUS PERSON
18-0503950 2405 WASHINGTON AV 2018-05-20 00:45:26.030 CHECKING VEHICLE
18-0503949 18-05583 235 FARRIS RD 2018-05-20 00:30:50.167 BATTERY REPORT
18-0503946 2200 ARKANSAS AV 2018-05-19 23:52:57.827 CHECKING PERSON
18-0503944 1700 CALDWELL ST 2018-05-19 23:41:44.457 FIGHT
18-0503942 100 HAYES ST 2018-05-19 23:17:17.637 CHECK ON THE WELFARE
18-0503941 350 GRANDVIEW HEIGHTS DR 2018-05-19 23:13:22.057 CHECKING VEHICLE
18-0503940 1845 OLD MORRILTON HWY 2018-05-19 23:12:26.177 CHECK ON THE WELFARE
18-0503939 867 FENDLEY DR 2018-05-19 23:11:52.917 CITIZEN ASSIST
18-0503938 1 CADRON SETTLEMENT PARK RD 2018-05-19 23:06:21.473 CHECKING VEHICLE
18-0503936 1017 WATKINS ST 2018-05-19 22:58:25.727 ATTEMPT TO CONTACT
18-0503935 130 HARKRIDER ST 2018-05-19 22:47:50.327 STALLED VEHICLE
18-0503931 2018-05-19 22:31:41.237 ATTEMPT TO CONTACT
18-0503928 475 ROBINS ST 2018-05-19 22:11:22.773 ATTEMPT TO CONTACT
18-0503925 2415 WASHINGTON AV 2018-05-19 21:41:50.940 RUNAWAY
18-0503923 2280 SANDERS ST 2018-05-19 21:37:16.263 ALARM
18-0503920 3900 DAVE WARD DR 2018-05-19 21:14:59.490 DISTURBANCE
18-0503915 18-05577 4540 PRINCE ST 2018-05-19 20:36:03.283 ACCIDENT - PROPERTY DAMAGE
18-0503914 501 ELSINGER BLVD 2018-05-19 20:35:50.490 SUSPICIOUS PERSON
18-0503913 18-05578 1740 TUSCANY DR 2018-05-19 20:32:47.610 DOMESTIC DISTURBANCE
18-0503911 109 LOWER RIDGE RD 2018-05-19 20:18:46.917 CRIMINAL MISCHIEF
18-0503910 2104 SUGAR CREEK DR 2018-05-19 20:18:21.473 SUPPLEMENT REPORT CALL
18-0503908 1475 JOYNER DR 2018-05-19 20:08:53.757 LOUD NOISE-MUSIC
18-0503905 18-05576 475 ROBINS ST 2018-05-19 20:05:09.103 CRIMINAL MISCHIEF
18-0503903 2300 PRINCE ST 2018-05-19 19:58:07.923 TRAFFIC PROBLEM-CONTROL
18-0503902 2200 MEADOWLAKE RD 2018-05-19 19:48:00.700 SUSPICIOUS PERSON
18-0503901 715 MILAM DR 2018-05-19 19:36:56.330 CIVIL MATTER
18-0503899 25 NABCO DR 2018-05-19 19:24:02.337 CITIZEN ASSIST
18-0503898 1404 CALDWELL ST 2018-05-19 19:20:09.267 BURGLARY
18-0503897 18-05574 1401 CALDWELL ST 2018-05-19 19:18:08.940 TRESPASSING
18-0503895 475 ROBINS ST 2018-05-19 18:59:56.360 BURGLARY
18-0503894 475 ROBINS ST 2018-05-19 18:54:14.337 TRESPASSING
18-0503893 18-05575 300 S DONAGHEY AV 2018-05-19 18:47:50.260 THEFT OF PROPERTY
18-0503892 2625 DONAGHEY AV 2018-05-19 18:44:48.453 ALARM
18-0503891 1601 HOGAN LN 2018-05-19 18:44:20.997 DISTURBANCE
18-0503890 6 THOUSAND OAKS CIR 2018-05-19 18:41:28.270 ALARM - HOLD UP or PANIC
18-0503889 PRINCE ST 2018-05-19 18:40:04.683 ATTEMPT TO CONTACT
18-0503888 2125 HARKRIDER ST 2018-05-19 18:39:57.757 CHECKING VEHICLE
18-0503887 3742 OLD MORRILTON HWY 2018-05-19 18:18:54.337 ATTEMPT TO CONTACT
18-0503886 1055 STEEL AV 2018-05-19 18:02:02.297 PROPERTY DAMAGE
18-0503884 18-05573 10 LOWER RIDGE RD 2018-05-19 17:55:41.807 ACCIDENT - PRIVATE PROPERTY
18-0503883 18-05571 1813 TYLER ST 2018-05-19 17:51:22.140 HARASSING COMMUNICATIONS
18-0503882 18-05572 1240 OLD MORRILTON HWY 2018-05-19 17:38:20.267 ACCIDENT - PRIVATE PROPERTY
18-0503881 18-05569 10 LOWER RIDGE RD 2018-05-19 17:24:10.877 DISTURBANCE
18-0503880 1825 E OAK ST 2018-05-19 17:22:15.327 CIVIL MATTER
18-0503879 5810 BRUSH CREEK LP 2018-05-19 17:21:07.887 ALARM
18-0503878 18-05570 1080 FENDLEY DR 2018-05-19 17:18:39.853 DOMESTIC DISTURBANCE
18-0503876 1200 DAVE WARD DR 2018-05-19 17:13:44.040 CHECK ON THE WELFARE
18-0503875 2021 HAIRSTON AV 2018-05-19 17:01:16.757 CIVIL STAND BY
18-0503874 1510 MILL ST 2018-05-19 16:52:16.610 SUPPLEMENT REPORT CALL
18-0503873 2235 DAVE WARD DR 2018-05-19 16:43:25.780 ALARM
18-0503872 1620 MIDDLE RD 2018-05-19 16:22:14.043 ATTEMPT TO CONTACT
18-0503870 18-05565 1266 S AMITY RD 2018-05-19 16:02:36.533 SHOPLIFTING
18-0503869 475 ROBINS ST 2018-05-19 16:00:04.913 ATTEMPT TO CONTACT
18-0503868 18-05567 1769 OLD MORRILTON HWY 2018-05-19 15:58:28.067 ACCIDENT - PROPERTY DAMAGE
18-0503866 18-05566 1325 OLD MORRILTON HWY 2018-05-19 15:48:46.363 ACCIDENT - HIT AND RUN
18-0503864 18-05564 1260 S AMITY RD 2018-05-19 15:40:22.300 SHOPLIFTING
18-0503860 2745 T J DR 2018-05-19 15:08:14.307 SUSPICIOUS VEHICLE
18-0503859 1800 BOWIE ST 2018-05-19 15:00:35.143 LOUD NOISE-MUSIC
18-0503858 18-05563 2114 SUGAR CREEK DR 2018-05-19 14:52:42.300 ACCIDENT - PROPERTY DAMAGE
18-0503857 174 S DAVIS ST 2018-05-19 14:50:46.623 911 HANGUP CALL
18-0503856 18-05562 1303 DONAGHEY AV 2018-05-19 14:46:31.353 THEFT OF VEHICLE
18-0503854 707 ROBINS ST 2018-05-19 14:33:46.067 ATTEMPT TO CONTACT
18-0503852 18-05561 1769 OLD MORRILTON HWY 2018-05-19 14:04:14.497 ACCIDENT - HIT AND RUN
18-0503851 18-05560 855 AMITY RD 2018-05-19 13:45:50.430 ACCIDENT - PRIVATE PROPERTY
18-0503849 18-05557 1600 WASHINGTON AV 2018-05-19 13:35:41.710 THEFT OF PROPERTY
18-0503848 18-05558 3900 DAVE WARD DR 2018-05-19 13:23:06.123 DOMESTIC DISTURBANCE
18-0503847 2060 MASSEE GARDENS 2018-05-19 13:15:22.013 ALARM
18-0503846 2007 MICHELLE CIR 2018-05-19 13:11:27.667 HARASSING COMMUNICATIONS
18-0503845 1527 HARDY ST 2018-05-19 13:05:04.587 REPOSSESSION
18-0503843 18-05556 1813 TYLER ST 2018-05-19 12:50:42.997 HARASSING COMMUNICATIONS
18-0503842 18-05555 1115 E OAK ST 2018-05-19 12:50:34.057 ACCIDENT - PRIVATE PROPERTY
18-0503840 2905 PEBBLE BEACH DR 2018-05-19 12:48:22.890 DOMESTIC DISTURBANCE
18-0503839 1645 AMELIA DR 2018-05-19 12:41:56.440 ATTEMPT TO CONTACT
18-0503838 3900 DAVE WARD DR 2018-05-19 12:41:37.267 THEFT OF VEHICLE
18-0503837 867 FENDLEY DR 2018-05-19 12:37:39.893 SUPPLEMENT REPORT CALL
18-0503836 18-05554 1200 ANDREWS DR 2018-05-19 12:36:12.983 FORGERY
18-0503835 401 2ND ST 2018-05-19 12:22:39.757 DOMESTIC DISTURBANCE
18-0503834 18-05553 84 MARY LN 2018-05-19 12:14:06.910 NO CONTACT ORDER VIOLATION
18-0503833 150 SKYLINE DR 2018-05-19 12:12:31.750 SUSPICIOUS ACTIVITY
18-0503831 1830 PEARCE ST 2018-05-19 12:07:51.257 PARKING VIOLATION
18-0503830 430 PAR FORE DR 2018-05-19 12:03:31.200 ALARM
18-0503829 18-05552 2900 DAVE WARD DR 2018-05-19 11:50:13.417 ACCIDENT - HIT AND RUN
18-0503828 1510 MILL ST 2018-05-19 11:45:54.513 SUPPLEMENT REPORT CALL
18-0503827 422 MONROE ST 2018-05-19 11:14:12.547 HARASSMENT
18-0503825 955 SOUTH GERMAN LN 2018-05-19 11:02:16.417 UNKNOWN TROUBLE
18-0503824 1610 SOUTHERN HILLS DR 2018-05-19 11:00:29.883 ATTEMPT TO CONTACT
18-0503823 18-05550 256 OAK ST 2018-05-19 10:57:16.197 SUSPICIOUS PERSON
18-0503822 18-05551 1104 E OAK ST 2018-05-19 10:54:27.343 SUSPICIOUS VEHICLE
18-0503821 18-05549 1105 PRAIRIE ST 2018-05-19 10:52:44.040 BREAKING OR ENTERING
18-0503820 1919 TORREYSON ST 2018-05-19 10:46:42.690 SUPPLEMENT REPORT CALL
18-0503819 18-05548 2102 SUGAR CREEK DR 2018-05-19 10:44:21.070 BREAKING OR ENTERING
18-0503818 803 HARKRIDER ST 2018-05-19 10:37:24.150 ALARM
18-0503817 18-05545 1105 PRAIRIE ST 2018-05-19 10:26:21.107 FOUND PROPERTY
18-0503816 2200 WASHINGTON AV 2018-05-19 10:25:31.123 AGENCY ASSIST
18-0503815 18-05547 803 HARKRIDER ST 2018-05-19 10:23:55.883 CRIMINAL MISCHIEF
18-0503813 18-05544 1001 MCNUTT RD 2018-05-19 10:15:24.570 BREAKING OR ENTERING
18-0503812 1156 HUNTER ST 2018-05-19 10:09:48.633 DOMESTIC DISTURBANCE
18-0503811 18-05546 2104 SUGAR CREEK DR 2018-05-19 10:06:42.990 BREAKING OR ENTERING
18-0503810 1701 HAIRSTON AV 2018-05-19 10:05:57.483 CHECK ON THE WELFARE
18-0503809 1008 E OAK ST 2018-05-19 09:51:29.793 ALARM
18-0503806 1008 SALEM RD 2018-05-19 09:18:00.617 SUSPICIOUS PERSON
18-0503805 2001 BLANEY HILL RD 2018-05-19 09:13:37.533 CHECK ON THE WELFARE
18-0503800 256 OAK ST 2018-05-19 08:28:53.203 SUSPICIOUS PERSON
18-0503799 2250 REMINGTON RD 2018-05-19 08:07:32.497 RECKLESS DRIVER
18-0503798 2824 PRINCE ST 2018-05-19 07:59:15.783 SUSPICIOUS VEHICLE
18-0503796 2400 MARKET PLAZA DR 2018-05-19 07:55:11.123 CHECK ON THE WELFARE
18-0503795 620 CHESTNUT ST 2018-05-19 07:40:17.413 PURSUIT DRILL
18-0503793 1016 OAK ST 2018-05-19 07:20:04.320 ALARM
18-0503792 815 E OAK ST 2018-05-19 07:15:31.953 ATTEMPT TO CONTACT
18-0503791 1409 BRUCE ST 2018-05-19 05:42:15.143 DOMESTIC DISTURBANCE
18-0503790 1775 OLD MORRILTON HWY 2018-05-19 05:25:20.330 CHECK ON THE WELFARE
18-0503788 18-05540 105 E OAK ST 2018-05-19 04:39:19.387 ACCIDENT - PROPERTY DAMAGE
18-0503787 2051 HARKRIDER ST 2018-05-19 04:26:00.247 CHECKING PERSON
18-0503786 1155 SKYLINE DR 2018-05-19 04:23:00.920 CHECKING PERSON
18-0503785 1200 DAVE WARD DR 2018-05-19 04:21:51.110 CHECK ON THE WELFARE
18-0503784 1931 MARTIN ST 2018-05-19 04:07:20.410 CHECKING VEHICLE
18-0503780 375 MONROE ST 2018-05-19 03:44:56.290 UNAUTHORIZED USE OF MOTOR VEHICLE
18-0503779 220 E OAK ST 2018-05-19 03:44:49.987 CHECK ON THE WELFARE
18-0503776 901 E OAK ST 2018-05-19 03:01:56.513 RECKLESS DRIVER
18-0503772 1000 E SIEBENMORGEN RD 2018-05-19 02:34:18.920 ALARM
18-0503768 1845 OLD MORRILTON HWY 2018-05-19 02:11:56.203 CHECKING PERSON
18-0503767 501 ELSINGER BLVD 2018-05-19 02:10:57.610 CHECKING VEHICLE
18-0503766 6001 DAVE WARD DR 2018-05-19 02:08:04.730 CHECKING VEHICLE
18-0503764 475 ROBINS ST 2018-05-19 01:47:45.337 LOUD NOISE-MUSIC
18-0503763 2310 ROBINSON AV 2018-05-19 01:38:30.120 CHECKING VEHICLE
18-0503762 18-05536 1709 WASHINGTON AV 2018-05-19 01:37:09.310 ATTEMPT TO CONTACT
18-0503759 701 2ND ST 2018-05-19 01:24:52.103 CHECKING PERSON
18-0503757 2730 DAVE WARD DR 2018-05-19 01:06:56.807 SHOTS FIRED
18-0503755 1660 MOCKINGBIRD LN 2018-05-19 00:58:43.790 CHECKING PERSON
18-0503753 116 S HARKRIDER DR 2018-05-19 00:44:45.460 CHECKING PERSON
18-0503751 18-05535 300 S DONAGHEY AV 2018-05-19 00:32:43.260 DOMESTIC DISTURBANCE
18-0503750 375 MONROE ST 2018-05-19 00:29:08.180 CITIZEN ASSIST
18-0503749 18-05534 545 E DAVE WARD DR 2018-05-19 00:27:29.570 ACCIDENT - PRIVATE PROPERTY
18-0503747 1121 GUM ST 2018-05-19 00:22:11.667 CHECKING PERSON
18-0503746 801 SOUTH GERMAN LN 2018-05-18 23:56:29.733 TRAFFIC PROBLEM-CONTROL
18-0503741 3715 PRINCE ST 2018-05-18 23:30:11.043 STALLED VEHICLE
18-0503740 2715 PRINCE ST 2018-05-18 23:23:16.623 DISORDERLY CONDUCT
18-0503738 2799 SALEM RD 2018-05-18 23:15:35.120 CHECKING VEHICLE
18-0503737 18-05532 155 FARRIS RD 2018-05-18 23:14:19.160 FOUND PROPERTY
18-0503735 1903 HOGAN LN 2018-05-18 23:01:29.193 DOMESTIC DISTURBANCE
18-0503733 1135 TRENTON DR 2018-05-18 22:53:34.507 REPOSSESSION
18-0503729 1155 CUMULUS DR 2018-05-18 22:49:20.283 DOMESTIC DISTURBANCE
18-0503721 1200 E DAVE WARD DR 2018-05-18 22:06:37.937 RECKLESS DRIVER
18-0503720 270 S ASH ST 2018-05-18 21:56:22.283 LOUD NOISE-MUSIC
18-0503719 2950 WINDAMERE DR 2018-05-18 21:45:56.400 TRESPASSING
18-0503718 2018-05-18 21:44:22.067 SUPPLEMENT REPORT CALL
18-0503716 500 SALEM RD 2018-05-18 21:36:04.090 RECKLESS DRIVER
18-0503713 1600 E OAK ST 2018-05-18 21:23:34.090 CHECK ON THE WELFARE
18-0503712 1400 OLD MORRILTON HWY 2018-05-18 21:17:03.677 CHECKING VEHICLE
18-0503711 3900 DAVE WARD DR 2018-05-18 21:10:13.513 RECKLESS DRIVER
18-0503710 18-05529 27 GLENDALE DR 2018-05-18 21:09:38.613 DOMESTIC DISTURBANCE
18-0503708 1260 OLD MORRILTON HWY 2018-05-18 20:59:57.330 CIVIL MATTER
18-0503706 801 SOUTH GERMAN LN 2018-05-18 20:54:08.493 PARKING VIOLATION
18-0503705 1122 GUM ST 2018-05-18 20:50:30.323 CHECKING PERSON
18-0503704 2605 HARBELLE DR 2018-05-18 20:45:06.727 RUNAWAY
18-0503703 18-05527 201 SKYLINE DR 2018-05-18 20:42:48.650 ACCIDENT - PRIVATE PROPERTY
18-0503702 1624 WESTLAKE DR 2018-05-18 20:27:27.090 TRESPASSING
18-0503701 924 MILL ST 2018-05-18 20:12:43.570 AGENCY ASSIST
18-0503700 18-05524 2605 HARBELLE DR 2018-05-18 19:38:33.033 RUNAWAY
18-0503699 1455 PINEFIELD DR 2018-05-18 19:35:03.630 ATTEMPT TO CONTACT
18-0503698 1570 S SALEM RD 2018-05-18 19:28:30.970 DOMESTIC DISTURBANCE
18-0503695 2270 MEADOWLAKE RD 2018-05-18 19:26:51.987 RECOVERED PROPERTY
18-0503693 1017 WATKINS ST 2018-05-18 19:20:43.383 ATTEMPT TO CONTACT
18-0503692 18-05523 2805 PEBBLE BEACH DR 2018-05-18 19:14:31.270 CHECK ON THE WELFARE
18-0503690 18-05525 1010 E OAK ST 2018-05-18 18:51:55.230 FOUND PROPERTY
18-0503689 1000 MORNINGSIDE DR 2018-05-18 18:48:31.210 SUPPLEMENT REPORT CALL
18-0503688 18-05526 867 FENDLEY DR 2018-05-18 18:37:22.393 BURGLARY
18-0503687 1701 HUTTO ST 2018-05-18 18:35:20.833 TRESPASSING
18-0503686 18-05522 4700 TYLER ST 2018-05-18 18:33:35.143 THEFT OF VEHICLE
18-0503685 1265 HARKRIDER ST 2018-05-18 18:26:58.693 SUPPLEMENT REPORT CALL
18-0503683 1099 SIEBENMORGEN RD 2018-05-18 18:16:14.213 ACCIDENT - PROPERTY DAMAGE
18-0503682 520 MILAM DR 2018-05-18 18:15:49.173 BREAKING OR ENTERING
18-0503681 18-05521 1510 MILL ST 2018-05-18 18:08:52.520 BREAKING OR ENTERING
18-0503679 1620 DOE TRL 2018-05-18 18:02:50.050 SUPPLEMENT REPORT CALL
18-0503678 18-05520 1500 HARKRIDER ST 2018-05-18 17:59:22.923 ACCIDENT - PROPERTY DAMAGE
18-0503677 1017 WATKINS ST 2018-05-18 17:48:38.380 ATTEMPT TO CONTACT
18-0503676 1263 LINCOLN ST 2018-05-18 17:40:27.503 SUPPLEMENT REPORT CALL
18-0503675 1901 E OAK ST 2018-05-18 17:25:32.060 RECKLESS DRIVER
18-0503674 18-05517 201 SKYLINE DR 2018-05-18 17:24:09.550 ACCIDENT - HIT AND RUN
18-0503673 650 SKYLINE DR 2018-05-18 17:17:06.267 RECKLESS DRIVER
18-0503671 1463 COLLEGE AV 2018-05-18 16:58:37.973 TRAFFIC PROBLEM-CONTROL
18-0503670 300 FARRIS RD 2018-05-18 16:56:59.710 ATTEMPT TO CONTACT
18-0503668 1335 E OAK ST 2018-05-18 16:48:22.177 CHECK ON THE WELFARE
18-0503667 2730 DAVE WARD DR 2018-05-18 16:39:03.607 CIVIL STAND BY
18-0503666 1515 APPALACHAIN DR 2018-05-18 16:37:29.803 ATTEMPT TO CONTACT
18-0503665 18-05516 831 PARKWAY ST 2018-05-18 16:36:35.747 THEFT OF PROPERTY
18-0503664 1105 PRAIRIE ST 2018-05-18 16:26:39.520 ATTEMPT TO CONTACT
18-0503663 18-05514 254 OAK ST 2018-05-18 16:19:52.990 SHOPLIFTING
18-0503662 900 SOUTH GERMAN LN 2018-05-18 16:05:23.523 RECKLESS DRIVER
18-0503661 18-05515 1455 PINEFIELD DR 2018-05-18 16:03:49.563 BATTERY REPORT
18-0503657 18-05513 1769 OLD MORRILTON HWY 2018-05-18 15:49:47.803 ACCIDENT - PROPERTY DAMAGE
18-0503656 855 SALEM RD 2018-05-18 15:49:16.557 ATTEMPT TO CONTACT
18-0503653 2101 COLLEGE AV 2018-05-18 15:39:02.887 ACCIDENT - PROPERTY DAMAGE
18-0503652 1701 HAIRSTON AV 2018-05-18 15:33:45.297 CHECK ON THE WELFARE
18-0503651 18-05511 601 ELSINGER BLVD 2018-05-18 15:33:30.100 SHOPLIFTING
18-0503647 1156 HUNTER ST 2018-05-18 15:26:09.500 ATTEMPT TO CONTACT
18-0503646 2255 STURGIS RD 2018-05-18 15:23:36.320 ALARM
18-0503645 831 PARKWAY ST 2018-05-18 15:21:39.430 BREAKING OR ENTERING
18-0503644 615 ROBINS ST 2018-05-18 15:15:40.513 ARMED SUBJECT
18-0503642 1017 WATKINS ST 2018-05-18 15:06:00.417 ATTEMPT TO CONTACT
18-0503640 18-05508 1815 PRINCE ST 2018-05-18 14:57:20.193 ACCIDENT - PROPERTY DAMAGE
18-0503639 18-05510 867 FENDLEY DR 2018-05-18 14:53:42.600 BURGLARY
18-0503638 18-05507 1265 HARKRIDER ST 2018-05-18 14:49:36.800 THEFT OF VEHICLE
18-0503636 18-05509 1008 SALEM RD 2018-05-18 14:35:27.210 BURGLARY
18-0503635 705 MUSEUM RD 2018-05-18 14:33:22.390 VEHICLE TOW
18-0503633 2985 ROBERT OTT CIR 2018-05-18 14:17:25.610 ALARM
18-0503632 1155 SKYLINE DR 2018-05-18 14:12:32.760 ACCIDENT - PROPERTY DAMAGE
18-0503631 465 EAST GERMAN LN 2018-05-18 14:08:54.247 SUPPLEMENT REPORT CALL
18-0503630 1270 HARRISON ST 2018-05-18 14:05:24.937 OPEN DOOR/WINDOW/FENCE
18-0503629 18-05506 111 LOCUST AV 2018-05-18 13:52:59.460 TRESPASSING
18-0503628 1270 HARRISON ST 2018-05-18 13:44:50.890 ATTEMPT TO CONTACT
18-0503627 1254 MARKHAM ST 2018-05-18 13:40:38.900 OPEN DOOR/WINDOW/FENCE
18-0503626 18-05504 1001 HARKRIDER ST 2018-05-18 13:17:49.897 ACCIDENT - PROPERTY DAMAGE
18-0503624 912 FRONT ST 2018-05-18 13:09:58.500 TRAFFIC PROBLEM-CONTROL
18-0503623 825 CORDOBA DR 2018-05-18 13:02:32.380 ALARM
18-0503619 2799 SALEM RD 2018-05-18 12:30:36.583 STALLED VEHICLE
18-0503618 18-05502 465 EAST GERMAN LN 2018-05-18 12:27:14.577 THEFT OF PROPERTY
18-0503616 1017 WATKINS ST 2018-05-18 12:14:24.607 ATTEMPT TO CONTACT
18-0503615 155 FARRIS RD 2018-05-18 12:09:03.147 VEHICLE TOW
18-0503614 234 CONWAY BLVD 2018-05-18 11:59:16.950 ALARM
18-0503613 2200 WASHINGTON AV 2018-05-18 11:54:37.253 SUSPICIOUS PERSON
18-0503612 18-05503 1440 APPALACHAIN DR 2018-05-18 11:49:33.127 FELONY WARRANT SERVICE
18-0503604 2401 CHRISTINA LN 2018-05-18 11:16:39.233 ACCIDENT - PRIVATE PROPERTY
18-0503603 18-05499 475 ROBINS ST 2018-05-18 11:15:28.580 STALKING
18-0503602 18-05500 1090 COLLIER DR 2018-05-18 11:10:32.097 ACCIDENT - PRIVATE PROPERTY
18-0503601 1985 RICH SMITH LN 2018-05-18 10:59:10.130 ATTEMPT TO CONTACT
18-0503599 620 CHESTNUT ST 2018-05-18 10:42:22.693 CHECK ON THE WELFARE
18-0503598 1705 S SALEM RD 2018-05-18 10:41:35.457 DISTURBANCE
18-0503597 1001 MCNUTT RD 2018-05-18 10:41:07.267 SERVING SUBPOENA
18-0503596 600 ELSINGER BLVD 2018-05-18 10:26:39.860 SERVING SUBPOENA
18-0503595 18-05498 1324 BELLEMEADE DR 2018-05-18 10:25:25.197 DOMESTIC DISTURBANCE
18-0503594 1510 MILL ST 2018-05-18 10:24:59.067 ATTEMPT TO CONTACT
18-0503592 2015 RICH SMITH LN 2018-05-18 10:05:08.933 DISORDERLY CONDUCT
18-0503588 18-05496 1316 MAIN ST 2018-05-18 09:49:50.170 HARASSING COMMUNICATIONS
18-0503586 545 E DAVE WARD DR 2018-05-18 09:47:12.060 CHECK ON THE WELFARE
18-0503578 3715 PRINCE ST 2018-05-18 09:18:50.460 ABANDONED VEHICLE
18-0503576 207 WILLOW ST 2018-05-18 09:07:04.187 SERVING SUBPOENA
18-0503575 1014 HARKRIDER ST 2018-05-18 09:02:09.310 SERVING SUBPOENA
18-0503573 475 ROBINS ST 2018-05-18 08:55:52.733 SERVING SUBPOENA
18-0503571 475 ROBINS ST 2018-05-18 08:50:46.437 SERVING SUBPOENA
18-0503570 911 S HARKRIDER DR 2018-05-18 08:32:17.210 ATTEMPT TO CONTACT
18-0503569 18-05495 1115 E OAK ST 2018-05-18 08:28:28.227 CRIMINAL MISCHIEF
18-0503568 400 S ASH ST 2018-05-18 08:27:55.013 CHECK ON THE WELFARE
18-0503565 18-05494 1000 COUNTRY CLUB RD 2018-05-18 08:02:25.343 ACCIDENT - PROPERTY DAMAGE
18-0503562 18-05493 1105 SKYLINE DR 2018-05-18 07:31:39.070 MISDEMEANOR WARRANT SERVICE
18-0503561 504 E OAK ST 2018-05-18 07:31:28.307 ATTEMPT TO CONTACT
18-0503559 1105 PRAIRIE ST 2018-05-18 07:24:06.317 VEHICLE TOW
18-0503558 18-05492 100 ROBINS ST 2018-05-18 07:00:18.420 ACCIDENT - PRIVATE PROPERTY
18-0503557 18-05491 2175 ROSEMARY DR 2018-05-18 06:35:24.333 DOMESTIC DISTURBANCE
18-0503555 1155 SKYLINE DR 2018-05-18 05:31:57.987 CHECK ON THE WELFARE
18-0503554 900 SOUTH GERMAN LN 2018-05-18 05:15:54.917 STALLED VEHICLE
18-0503552 2900 SADDLETOP RD 2018-05-18 04:28:41.543 ATTEMPT TO CONTACT
18-0503550 1967 ROBINS ST 2018-05-18 04:01:23.420 DOMESTIC DISTURBANCE
18-0503549 2900 SADDLETOP RD 2018-05-18 03:56:50.397 CHECKING PERSON
18-0503548 5200 DONNELL RIDGE RD 2018-05-18 03:40:08.297 CHECKING VEHICLE
18-0503547 2395 PRINCE ST 2018-05-18 03:38:25.680 ALARM
18-0503545 2056 SCOTT ST 2018-05-18 02:44:10.380 CHECKING VEHICLE
18-0503544 3245 STONE RD 2018-05-18 02:37:38.687 LOUD NOISE-MUSIC
18-0503543 526 ASH ST 2018-05-18 02:33:08.083 CHECKING VEHICLE
18-0503541 1155 CUMULUS DR 2018-05-18 01:57:18.317 PROWLER
18-0503538 300 S DONAGHEY AV 2018-05-18 01:49:19.950 BURGLARY
18-0503537 3120 PEBBLE BEACH DR 2018-05-18 01:32:52.653 CHECKING VEHICLE
18-0503536 805 DONAGHEY AV 2018-05-18 01:32:32.607 CHECKING VEHICLE
18-0503534 2300 PRINCE ST 2018-05-18 01:28:56.573 CHECKING VEHICLE
18-0503533 675 AMITY RD 2018-05-18 01:24:30.527 DISTURBANCE
18-0503532 1502 BOEN ST 2018-05-18 01:17:28.257 CHECKING VEHICLE
18-0503529 1155 SKYLINE DR 2018-05-18 00:36:18.777 CHECKING PERSON
18-0503528 201 DONAGHEY AV 2018-05-18 00:21:21.087 REPOSSESSION
18-0503526 1601 HOGAN LN 2018-05-18 00:01:12.627 LOUD NOISE-MUSIC
18-0503525 2900 BILLY JACK DR 2018-05-17 23:52:46.787 LOUD NOISE-MUSIC
18-0503523 2035 MAPLE RIDGE CIR 2018-05-17 23:32:40.650 ALARM
18-0503522 1025 S DONAGHEY AV 2018-05-17 23:24:28.023 LOUD NOISE-MUSIC
18-0503519 18-05489 900 E SIEBENMORGEN RD 2018-05-17 22:43:49.967 CRIMINAL MISCHIEF
18-0503517 1405 DAVE WARD DR 2018-05-17 22:37:10.360 INTOXICATED DRIVER
18-0503516 375 MONROE ST 2018-05-17 22:34:18.560 CHECK ON THE WELFARE
18-0503515 1025 S DONAGHEY AV 2018-05-17 22:26:15.997 LOUD NOISE-MUSIC
18-0503514 2730 DAVE WARD DR 2018-05-17 22:17:46.383 DOMESTIC DISTURBANCE
18-0503513 1445 GARDENIA 2018-05-17 22:10:24.490 ALARM
18-0503512 2505 BLANEY HILL RD 2018-05-17 21:53:03.590 FIRE DEPT ASSIST
18-0503510 1485 OLD MORRILTON HWY 2018-05-17 21:41:06.723 DOMESTIC DISTURBANCE
18-0503506 20 KINLEY DR 2018-05-17 21:19:10.497 LITTERING
18-0503505 18-05487 2003 BERRY PLACE DR 2018-05-17 21:17:19.017 BREAKING OR ENTERING
18-0503501 1038 HARKRIDER ST 2018-05-17 20:45:36.140 SUPPLEMENT REPORT CALL
18-0503500 18-05485 1260 S AMITY RD 2018-05-17 20:41:56.190 TRESPASSING
18-0503499 18-05488 1105 PRAIRIE ST 2018-05-17 20:34:57.197 ATTEMPT TO CONTACT
18-0503498 3430 IRBY DR 2018-05-17 20:30:38.887 REPOSSESSION
18-0503497 1121 GUM ST 2018-05-17 20:25:00.610 AGENCY ASSIST
18-0503496 1815 TYLER ST 2018-05-17 20:23:14.450 ATTEMPT TO CONTACT
18-0503495 18-05484 475 ROBINS ST 2018-05-17 20:20:26.467 DISTURBANCE
18-0503494 2430 SANDERS ST 2018-05-17 20:14:32.603 TRESPASSING
18-0503493 1038 HARKRIDER ST 2018-05-17 20:09:01.613 SUPPLEMENT REPORT CALL
18-0503492 1600 WESTLAKE DR 2018-05-17 20:09:00.910 CIVIL MATTER
18-0503491 1121 GUM ST 2018-05-17 20:05:27.903 CHECK ON THE WELFARE
18-0503490 18-05483 2038 SILVER SPRINGS CIR 2018-05-17 19:58:27.790 TRESPASSING
18-0503489 314 ELIZABETH ST 2018-05-17 19:53:42.397 SUSPICIOUS ACTIVITY
18-0503488 314 ELIZABETH ST 2018-05-17 19:47:06.477 CHECKING VEHICLE
18-0503486 1115 GUM ST 2018-05-17 19:25:09.733 AGENCY ASSIST
18-0503485 314 ELIZABETH ST 2018-05-17 19:24:44.023 RECKLESS DRIVER
18-0503482 2550 PRINCE ST 2018-05-17 18:41:47.120 THEFT OF PROPERTY
18-0503481 18-05481 400 S CENTER ST 2018-05-17 18:36:15.690 SHOTS FIRED
18-0503480 10 AZALEA LN 2018-05-17 18:34:38.283 LOUD NOISE-MUSIC
18-0503479 1210 TRENTON DR 2018-05-17 18:33:55.273 DOMESTIC DISTURBANCE
18-0503478 1300 WINDSTORM DR 2018-05-17 18:32:40.923 ATTEMPT TO CONTACT
18-0503477 300 S DONAGHEY AV 2018-05-17 18:32:37.443 ATTEMPT TO CONTACT
18-0503476 2399 HOGAN LN 2018-05-17 18:26:20.133 STALLED VEHICLE
18-0503475 1405 S DONAGHEY AV 2018-05-17 18:22:55.850 TRESPASSING
18-0503474 1150 MUSEUM RD 2018-05-17 18:07:36.617 SUSPICIOUS PERSON
18-0503473 405 5TH AV 2018-05-17 18:05:49.210 CHECK ON THE WELFARE
18-0503471 12 MEADOWBROOK DR 2018-05-17 17:50:16.013 UNKNOWN TROUBLE
18-0503470 2125 COLLEGE AV 2018-05-17 17:44:24.570 MISSING PERSON
18-0503469 1280 STURGIS RD 2018-05-17 17:43:30.233 ATTEMPT TO CONTACT
18-0503468 18-05479 530 S DONAGHEY AV 2018-05-17 17:36:16.360 ACCIDENT - PRIVATE PROPERTY
18-0503467 207 WILLOW ST 2018-05-17 17:32:23.913 AGENCY ASSIST
18-0503466 475 ROBINS ST 2018-05-17 17:32:09.873 SUPPLEMENT REPORT CALL
18-0503465 521 MERRIMAN ST 2018-05-17 17:27:10.160 HARASSMENT
18-0503464 375 MONROE ST 2018-05-17 17:21:57.483 LOUD NOISE-MUSIC
18-0503462 1085 S DONAGHEY AV 2018-05-17 17:14:17.540 MISSING PERSON
18-0503461 18-05477 2730 DAVE WARD DR 2018-05-17 17:08:06.190 HARASSMENT
18-0503460 18-05476 1510 MILL ST 2018-05-17 16:58:28.370 BREAKING OR ENTERING
18-0503458 18-05475 1200 CLAYTON ST 2018-05-17 16:44:58.390 DOMESTIC DISTURBANCE
18-0503457 1020 E OAK ST 2018-05-17 16:41:29.920 SERVING SUBPOENA
18-0503456 925 OAK ST 2018-05-17 16:41:07.613 ALARM
18-0503454 1660 JACKSON DR 2018-05-17 16:32:42.833 SERVING SUBPOENA
18-0503453 2650 DONAGHEY AV 2018-05-17 16:32:02.837 CHECK ON THE WELFARE
18-0503451 2010 RICH SMITH LN 2018-05-17 16:29:49.313 VEHICLE TOW
18-0503450 1601 HOGAN LN 2018-05-17 16:29:20.810 ATTEMPT TO CONTACT
18-0503449 235 PICKWICKET DR 2018-05-17 16:21:33.037 THEFT OF PROPERTY
18-0503448 2050 DAVE WARD DR 2018-05-17 16:20:30.620 CHECKING PERSON
18-0503447 1401 CALDWELL ST 2018-05-17 16:16:24.413 ATTEMPT TO CONTACT
18-0503445 1600 DAVE WARD DR 2018-05-17 16:09:18.760 ALARM
18-0503443 18-05473 600 SALEM RD 2018-05-17 16:00:56.120 FRAUD
18-0503441 150 AMITY RD 2018-05-17 15:59:01.270 CHECKING PERSON
18-0503439 1615 SOUTH GERMAN LN 2018-05-17 15:49:44.777 STALLED VEHICLE
18-0503438 18-05472 855 SALEM RD 2018-05-17 15:45:52.177 THEFT OF PROPERTY
18-0503434 300 S DONAGHEY AV 2018-05-17 15:27:14.337 THEFT OF PROPERTY
18-0503433 1600 WASHINGTON AV 2018-05-17 15:22:51.033 STALLED VEHICLE
18-0503432 2550 PRINCE ST 2018-05-17 15:14:10.903 SUPPLEMENT REPORT CALL
18-0503431 2900 DAVE WARD DR 2018-05-17 15:14:06.443 ABANDONED VEHICLE
18-0503430 18-05469 1901 E OAK ST 2018-05-17 14:58:28.427 ACCIDENT - PROPERTY DAMAGE
18-0503429 18-05470 1290 CHOATE ST 2018-05-17 14:58:10.410 BURGLARY
18-0503428 1 SHERWOOD DR 2018-05-17 14:57:32.470 ATTEMPT TO CONTACT
18-0503427 12 BROADMOOR DR 2018-05-17 14:47:09.643 ATTEMPT TO CONTACT
18-0503426 1640 SWEETSPIRE DR 2018-05-17 14:46:04.060 HARASSING COMMUNICATIONS
18-0503425 2570 JAYME CIR 2018-05-17 14:45:53.170 ATTEMPT TO CONTACT
18-0503424 705 MUSEUM RD 2018-05-17 14:42:52.330 ABANDONED VEHICLE
18-0503422 475 ROBINS ST 2018-05-17 14:37:16.427 DOMESTIC DISTURBANCE
18-0503421 811 E OAK ST 2018-05-17 14:35:59.097 OPEN DOOR/WINDOW/FENCE
18-0503419 1 SHERWOOD DR 2018-05-17 14:24:33.697 ATTEMPT TO CONTACT
18-0503417 18-05465 1399 MARKHAM ST 2018-05-17 14:05:28.120 ACCIDENT - PERSONAL INJURY
18-0503416 1127 HARKRIDER ST 2018-05-17 14:02:32.350 CHECK ON THE WELFARE
18-0503414 18-05464 101 OAK ST 2018-05-17 13:51:19.853 ACCIDENT - PRIVATE PROPERTY
18-0503413 475 ROBINS ST 2018-05-17 13:50:29.043 DISTURBANCE
18-0503412 300 CONWAY BLVD 2018-05-17 13:48:57.003 ATTEMPT TO CONTACT
18-0503411 18-05463 3280 OLD MORRILTON HWY 2018-05-17 13:31:48.920 THEFT OF PROPERTY
18-0503410 126 HARKRIDER ST 2018-05-17 13:28:24.693 CHECKING PERSON
18-0503409 1030 SKYLINE DR 2018-05-17 13:27:01.757 CHECK ON THE WELFARE
18-0503407 2616 W MARTIN ST 2018-05-17 13:20:23.393 SUPPLEMENT REPORT CALL
18-0503405 855 SALEM RD 2018-05-17 13:12:37.333 THEFT OF PROPERTY
18-0503403 18-05459 1600 WASHINGTON AV 2018-05-17 13:07:00.290 BATTERY REPORT
18-0503402 4101 COLLEGE AV 2018-05-17 13:05:42.910 SUPPLEMENT REPORT CALL
18-0503400 2018-05-17 13:02:12.777 ATTEMPT TO CONTACT
18-0503399 18-05461 2715 PRINCE ST 2018-05-17 13:00:31.437 ACCIDENT - PRIVATE PROPERTY
18-0503395 2156 PRINCE ST 2018-05-17 12:50:47.593 ATTEMPT TO CONTACT
18-0503394 18-05460 401 2ND ST 2018-05-17 12:48:37.037 HARASSMENT
18-0503393 18-05458 1010 MAIN ST 2018-05-17 12:40:10.977 ACCIDENT - PRIVATE PROPERTY
18-0503392 530 S DONAGHEY AV 2018-05-17 12:38:27.593 ACCIDENT - PRIVATE PROPERTY
18-0503390 1827 LEE AV 2018-05-17 12:17:08.510 HARASSING COMMUNICATIONS
18-0503387 18-05455 2125 HARKRIDER ST 2018-05-17 12:04:55.280 MISDEMEANOR WARRANT SERVICE
18-0503386 404 MERRIMAN ST 2018-05-17 12:03:24.377 RUNAWAY
18-0503385 18-05454 655 ELSINGER BLVD 2018-05-17 11:56:26.260 SHOPLIFTING
18-0503384 120 E OAK ST 2018-05-17 11:52:13.143 THEFT OF VEHICLE
18-0503382 18-05457 705 CHERUB DR 2018-05-17 11:51:12.927 DOMESTIC DISTURBANCE
18-0503379 1105 PRAIRIE ST 2018-05-17 11:41:53.810 ATTEMPT TO CONTACT
18-0503378 2014 HUTTO ST 2018-05-17 11:41:17.010 SUPPLEMENT REPORT CALL
18-0503374 18-05453 2420 BROADVIEW AV 2018-05-17 11:21:23.760 THEFT OF PROPERTY
18-0503372 1210 S AMITY RD 2018-05-17 11:10:35.567 LOST PROPERTY
18-0503371 18-05449 1111 E OAK ST 2018-05-17 10:55:53.557 ACCIDENT - PRIVATE PROPERTY
18-0503368 18-05448 2100 WASHINGTON AV 2018-05-17 10:50:31.240 ACCIDENT - PROPERTY DAMAGE
18-0503367 18-05447 2014 HUTTO ST 2018-05-17 10:48:18.323 THEFT OF VEHICLE
18-0503366 18-05451 530 S DONAGHEY AV 2018-05-17 10:44:20.047 FOUND PROPERTY
18-0503362 102 OAK ST 2018-05-17 10:30:20.500 DISTURBANCE
18-0503359 1850 JOHN BRYANT DR 2018-05-17 10:26:07.587 OPEN DOOR/WINDOW/FENCE
18-0503358 125 I40WB 2018-05-17 10:22:40.277 RECKLESS DRIVER
18-0503353 810 PARKWAY ST 2018-05-17 10:11:43.580 SUSPICIOUS PERSON
18-0503345 18-05445 1707 MARILYN DR 2018-05-17 09:38:37.210 BREAKING OR ENTERING
18-0503342 1810 COLLEGE AV 2018-05-17 09:19:26.860 ATTEMPT TO CONTACT
18-0503340 2813 BRUCE ST 2018-05-17 09:16:18.407 THEFT OF VEHICLE
18-0503337 1815 PRINCE ST 2018-05-17 09:00:41.657 911 HANGUP CALL
18-0503336 18-05444 1510 HATHAWAY DR 2018-05-17 08:53:25.347 ATTEMPT TO CONTACT
18-0503335 18-05441 2105 MEADOWLAKE RD 2018-05-17 08:47:45.963 FOUND PROPERTY
18-0503334 621 OAK ST 2018-05-17 08:47:26.853 SUPPLEMENT REPORT CALL
18-0503331 618 4TH AV 2018-05-17 08:19:17.620 SUPPLEMENT REPORT CALL
18-0503329 902 DONAGHEY AV 2018-05-17 08:12:34.650 TRAFFIC LIGHT PROBLEM
18-0503325 18-05442 2350 APPLE BLOSSOM 2018-05-17 08:08:03.237 ACCIDENT - HIT AND RUN
18-0503324 1600 S DONAGHEY AV 2018-05-17 08:03:01.103 STALLED VEHICLE
18-0503320 235 LOWER RIDGE RD 2018-05-17 07:39:21.103 ALARM
18-0503318 18-05438 505 SALEM RD 2018-05-17 07:12:37.877 FRAUD
18-0503317 1306 DEER ST 2018-05-17 07:08:23.123 SUSPICIOUS PERSON
18-0503316 18-05440 1405 S DONAGHEY AV 2018-05-17 07:02:14.097 DOMESTIC DISTURBANCE
18-0503315 18-05439 199 WASSON RD 2018-05-17 06:57:23.573 ACCIDENT - PROPERTY DAMAGE
18-0503314 18-05437 4101 COLLEGE AV 2018-05-17 06:51:11.660 ACCIDENT - PROPERTY DAMAGE
18-0503313 18-05436 500 SOUTH GERMAN LN 2018-05-17 06:38:23.877 MISDEMEANOR WARRANT SERVICE
18-0503308 475 ROBINS ST 2018-05-17 05:01:27.353 SUPPLEMENT REPORT CALL
18-0503307 704 3RD ST 2018-05-17 04:57:15.907 REPOSSESSION
18-0503306 2840 DAVE WARD DR 2018-05-17 04:57:14.423 CHECKING VEHICLE
18-0503304 18-05435 84 MARY LN 2018-05-17 04:50:16.383 CHECKING VEHICLE
18-0503303 2840 DAVE WARD DR 2018-05-17 04:37:21.570 LOUD NOISE-MUSIC
18-0503301 701 3RD ST 2018-05-17 03:57:58.017 CHECKING VEHICLE
18-0503300 1405 S DONAGHEY AV 2018-05-17 03:57:28.703 CHECKING VEHICLE
18-0503299 600 5TH AV 2018-05-17 03:31:33.213 CHECKING VEHICLE
18-0503298 705 MUSEUM RD 2018-05-17 03:14:54.217 CHECKING VEHICLE
18-0503297 2840 DAVE WARD DR 2018-05-17 03:12:17.543 TRESPASSING
18-0503296 18-05434 475 ROBINS ST 2018-05-17 02:47:03.627 BURGLARY
18-0503295 1525 CLIFTON ST 2018-05-17 02:38:45.773 CHECKING PERSON
18-0503294 2695 DAVE WARD DR 2018-05-17 02:33:34.080 CHECKING VEHICLE
18-0503293 1138 CLIFTON ST 2018-05-17 02:32:01.727 CHECKING VEHICLE
18-0503292 1405 S DONAGHEY AV 2018-05-17 02:14:13.963 CHECKING PERSON
18-0503290 18-05433 2125 HARKRIDER ST 2018-05-17 01:49:27.897 CHECKING PERSON
18-0503288 835 S DONAGHEY AV 2018-05-17 01:28:24.693 CHECKING VEHICLE
18-0503287 1823 MILL ST 2018-05-17 01:04:58.450 PROWLER
18-0503286 2480 TYLER ST 2018-05-17 01:02:15.817 CHECKING VEHICLE
18-0503285 1105 SKYLINE DR 2018-05-17 01:01:31.170 CHECKING VEHICLE
18-0503284 1912 HOGAN LN 2018-05-17 00:50:24.303 CHECKING VEHICLE
18-0503282 101 OAK ST 2018-05-17 00:34:16.227 CHECKING PERSON
18-0503281 375 MONROE ST 2018-05-17 00:19:45.183 CHECKING PERSON
18-0503279 18-05431 2840 DAVE WARD DR 2018-05-17 00:00:51.960 CHECKING VEHICLE
18-0503278 151 SKYLINE DR 2018-05-16 23:58:35.507 TRAFFIC PROBLEM-CONTROL
18-0503277 18-05430 500 SOUTH GERMAN LN 2018-05-16 23:55:04.467 MISDEMEANOR WARRANT SERVICE
18-0503276 2425 CHARLIE DAYER DR 2018-05-16 23:41:38.740 ALARM
18-0503274 1655 DAVE WARD DR 2018-05-16 23:16:41.317 CHECKING VEHICLE
18-0503273 18-05427 1090 SKYLINE DR 2018-05-16 23:09:20.857 ACCIDENT - PRIVATE PROPERTY
18-0503269 1200 E DAVE WARD DR 2018-05-16 22:49:38.337 STALLED VEHICLE
18-0503268 2195 DAVE WARD DR 2018-05-16 22:40:14.013 CHECKING BUILDING
18-0503267 18-05426 2350 APPLE BLOSSOM 2018-05-16 22:38:12.783 ACCIDENT - PROPERTY DAMAGE
18-0503266 18-05429 815 E OAK ST 2018-05-16 22:34:49.463 CHECKING VEHICLE
18-0503265 2501 DAVE WARD DR 2018-05-16 22:28:42.217 ATTEMPT TO CONTACT
18-0503263 1025 S DONAGHEY AV 2018-05-16 22:11:38.027 REPOSSESSION
18-0503261 2420 BROADVIEW AV 2018-05-16 22:07:01.747 CHECKING VEHICLE
18-0503259 260 SALEM RD 2018-05-16 21:57:24.923 CHECKING VEHICLE
18-0503257 867 FENDLEY DR 2018-05-16 21:48:17.243 DOMESTIC DISTURBANCE
18-0503254 1105 DEER ST 2018-05-16 21:32:06.110 ALARM
18-0503251 1125 OAK ST 2018-05-16 21:21:58.040 ALARM
18-0503250 2150 ROSEMARY DR 2018-05-16 21:20:01.010 CITIZEN ASSIST
18-0503244 801 MCNUTT RD 2018-05-16 21:08:28.713 RECKLESS DRIVER
18-0503240 1200 DAVE WARD DR 2018-05-16 20:57:44.560 TRAFFIC LIGHT PROBLEM
18-0503237 960 LOCUST AV 2018-05-16 20:36:22.827 CHECKING VEHICLE
18-0503236 2695 DAVE WARD DR 2018-05-16 20:31:16.217 CHECK ON THE WELFARE
18-0503231 630 ROBINS ST 2018-05-16 20:23:37.520 ALARM
18-0503229 3030 PEBBLE BEACH DR 2018-05-16 20:10:09.410 DOMESTIC DISTURBANCE
18-0503228 2510 PRINCE ST 2018-05-16 19:55:27.307 SUPPLEMENT REPORT CALL
18-0503226 1815 TYLER ST 2018-05-16 19:31:37.703 ATTEMPT TO CONTACT
18-0503224 18-05423 27 SANDSTONE DR 2018-05-16 19:06:09.920 HARASSMENT
18-0503223 2840 DAVE WARD DR 2018-05-16 18:46:44.827 SUPPLEMENT REPORT CALL
18-0503219 2018-05-16 18:24:11.797 SUPPLEMENT REPORT CALL
18-0503216 18-05422 1501 HOGAN LN 2018-05-16 17:56:56.510 ACCIDENT - HIT AND RUN
18-0503215 1622 WESTLAKE DR 2018-05-16 17:56:11.580 DOMESTIC DISTURBANCE
18-0503213 3200 DAVE WARD DR 2018-05-16 17:53:35.110 FOUND PROPERTY
18-0503212 2125 SPRING VALLEY DR 2018-05-16 17:49:39.233 PROWLER
18-0503211 400 DURHAM ST 2018-05-16 17:19:02.580 CHECK ON THE WELFARE
18-0503209 475 ROBINS ST 2018-05-16 17:01:05.910 ATTEMPT TO CONTACT
18-0503205 1312 BELLEMEADE DR 2018-05-16 16:42:34.573 ABANDONED VEHICLE
18-0503204 18-05421 950 CRAIN DR 2018-05-16 16:34:10.700 ACCIDENT - HIT AND RUN
18-0503202 124 I40WB 2018-05-16 16:25:12.083 STALLED VEHICLE
18-0503200 2501 DAVE WARD DR 2018-05-16 16:20:50.140 ACCIDENT - HIT AND RUN
18-0503194 18-05420 1750 VILLAGE COMMONS DR 2018-05-16 15:58:10.200 MISDEMEANOR WARRANT SERVICE
18-0503188 1240 STRATUS DR 2018-05-16 15:44:49.280 CHECK ON THE WELFARE
18-0503183 825 OAK ST 2018-05-16 15:33:02.070 ATTEMPT TO CONTACT
18-0503182 2018-05-16 15:30:16.117 SUPPLEMENT REPORT CALL
18-0503181 500 SOUTH GERMAN LN 2018-05-16 15:27:01.550 ATTEMPT TO CONTACT
18-0503174 18-05418 2022 ERBACH ST 2018-05-16 14:45:05.343 FRAUD
18-0503173 18-05417 1401 PRINCE ST 2018-05-16 14:32:36.080 THEFT OF PROPERTY
18-0503172 1700 HUTTO ST 2018-05-16 14:14:49.000 ATTEMPT TO CONTACT
18-0503171 1001 MCNUTT RD 2018-05-16 14:14:48.533 SERVING SUBPOENA
18-0503170 2900 IRBY DR 2018-05-16 14:13:44.183 CHECK ON THE WELFARE
18-0503167 3205 PEBBLE BEACH DR 2018-05-16 13:54:18.670 PARKING VIOLATION
18-0503166 18-05416 2590 DONAGHEY AV 2018-05-16 13:50:45.443 FORGERY
18-0503165 1600 WESTLAKE DR 2018-05-16 13:45:12.097 CIVIL MATTER
18-0503164 18-05414 1105 PRAIRIE ST 2018-05-16 13:43:38.120 DISTURBANCE
18-0503162 1105 COLLIER DR 2018-05-16 13:42:07.687 FIRE DEPT ASSIST
18-0503160 2100 DAVE WARD DR 2018-05-16 13:34:30.720 ROAD RAGE
18-0503159 111 LOCUST AV 2018-05-16 13:32:42.487 CITIZEN ASSIST
18-0503158 121 I40EB 2018-05-16 13:31:42.630 FRAUD
18-0503150 510 SOUTH GERMAN LN 2018-05-16 12:55:17.090 ATTEMPT TO CONTACT
18-0503148 601 ELSINGER BLVD 2018-05-16 12:49:22.510 THEFT OF PROPERTY
18-0503141 28 FRANCES DR 2018-05-16 12:15:20.697 CIVIL MATTER
18-0503140 18-05412 1835 OTT MEMORIAL BLVD 2018-05-16 12:02:12.910 BATTERY REPORT
18-0503135 2824 PRINCE ST 2018-05-16 11:47:05.643 BREAKING OR ENTERING
18-0503134 1001 MCNUTT RD 2018-05-16 11:45:56.207 ATTEMPT TO CONTACT
18-0503131 84 MARY LN 2018-05-16 11:16:56.463 SUPPLEMENT REPORT CALL
18-0503127 2051 HARKRIDER ST 2018-05-16 11:13:08.540 SUSPICIOUS PERSON
18-0503125 1914 DAVE WARD DR 2018-05-16 11:01:27.370 FIRE DEPT ASSIST
18-0503124 1985 RICH SMITH LN 2018-05-16 11:00:21.180 CIVIL STAND BY
18-0503120 500 COUNTRY CLUB RD 2018-05-16 10:51:50.770 STALLED VEHICLE
18-0503115 101 OAK ST 2018-05-16 10:28:45.340 TRESPASSING
18-0503114 340 SHAW ST 2018-05-16 10:23:18.803 PARKING VIOLATION
18-0503113 3202 PRINCE ST 2018-05-16 10:19:49.490 STALLED VEHICLE
18-0503110 1700 WASHINGTON AV 2018-05-16 10:13:34.690 ATTEMPT TO CONTACT
18-0503105 1025 S DONAGHEY AV 2018-05-16 10:01:58.827 HARASSMENT
18-0503104 300 S DONAGHEY AV 2018-05-16 09:59:30.500 THEFT OF PROPERTY
18-0503102 1000 SWN DR 2018-05-16 09:50:25.940 SUSPICIOUS PERSON
18-0503101 1105 PRAIRIE ST 2018-05-16 09:49:43.710 SERVING SUBPOENA
18-0503100 1825 E OAK ST 2018-05-16 09:47:16.100 CHECK ON THE WELFARE
18-0503098 18-05406 220 E OAK ST 2018-05-16 09:38:00.883 ACCIDENT - PROPERTY DAMAGE
18-0503097 1325 OLD MORRILTON HWY 2018-05-16 09:32:14.917 CHECKING VEHICLE
18-0503096 18-05405 900 INGRAM ST 2018-05-16 09:29:52.003 ACCIDENT - PROPERTY DAMAGE
18-0503093 3070 PRINCE ST 2018-05-16 09:21:44.650 ALARM - HOLD UP or PANIC
18-0503092 18-05404 207 WILLOW ST 2018-05-16 09:13:59.027 CRIMINAL MISCHIEF
18-0503090 201 2ND ST 2018-05-16 09:08:22.683 SERVING SUBPOENA
18-0503089 1985 RICH SMITH LN 2018-05-16 09:07:13.123 SUPPLEMENT REPORT CALL
18-0503086 100 SKYLINE DR 2018-05-16 08:59:37.423 RECKLESS DRIVER
18-0503084 801 SOUTH GERMAN LN 2018-05-16 08:51:06.183 CHECK ON THE WELFARE
18-0503081 2018-05-16 08:33:48.937 ENDANGERING WELFARE OF MINOR
18-0503080 2003 WIGGLE WORM RD 2018-05-16 08:28:06.213 SUSPICIOUS PERSON
18-0503078 18-05403 2550 PRINCE ST 2018-05-16 08:18:21.640 ACCIDENT - PRIVATE PROPERTY
18-0503077 18-05402 3900 DAVE WARD DR 2018-05-16 08:14:51.580 FRAUD
18-0503075 1901 E OAK ST 2018-05-16 08:10:50.383 RECKLESS DRIVER
18-0503073 2205 DESHA DR 2018-05-16 08:04:57.367 ALARM
18-0503072 2455 DONAGHEY AV 2018-05-16 08:04:13.200 FELONY WARRANT SERVICE
18-0503067 18-05401 1060 HOGAN LN 2018-05-16 07:39:46.820 ACCIDENT - PRIVATE PROPERTY
18-0503063 18-05400 900 SOUTH GERMAN LN 2018-05-16 07:26:43.247 ACCIDENT - PERSONAL INJURY
18-0503062 18-05397 901 E OAK ST 2018-05-16 07:18:53.507 ACCIDENT - PROPERTY DAMAGE
18-0503061 12 WOODBRIDGE DR 2018-05-16 07:05:34.337 ACCIDENT - PRIVATE PROPERTY
18-0503060 18-05396 2799 SALEM RD 2018-05-16 06:57:18.010 ACCIDENT - PROPERTY DAMAGE
18-0503058 3800 DAVE WARD DR 2018-05-16 06:19:27.823 ALARM
18-0503056 18-05395 600 DAVE WARD DR 2018-05-16 05:08:10.860 ACCIDENT - PRIVATE PROPERTY
18-0503055 1402 QUAIL CREEK DR 2018-05-16 04:57:47.350 ALARM
18-0503050 1200 FLEMING ST 2018-05-16 03:32:27.550 CHECKING PERSON
18-0503048 305 S BARIDON ST 2018-05-16 03:18:55.397 PROWLER
18-0503046 20 KINLEY DR 2018-05-16 02:54:11.903 CHECKING PERSON
18-0503045 2270 MEADOWLAKE RD 2018-05-16 02:52:08.253 CHECKING VEHICLE
18-0503042 1775 OLD MORRILTON HWY 2018-05-16 02:23:57.870 TRESPASSING
18-0503041 1200 WOODSIDE DR 2018-05-16 02:13:34.247 CHECKING VEHICLE
18-0503040 18-05394 701 REEDY RD 2018-05-16 02:00:48.007 BURGLARY
18-0503036 825 6TH ST 2018-05-16 01:14:26.100 CHECK ON THE WELFARE
18-0503035 515 HARKRIDER ST 2018-05-16 01:04:48.937 STALLED VEHICLE
18-0503034 450 ROBINS ST 2018-05-16 01:04:20.913 911 HANGUP CALL
18-0503033 18-05391 475 ROBINS ST 2018-05-16 00:55:41.887 ROBBERY
18-0503032 1802 ROBINS ST 2018-05-16 00:51:08.990 CHECKING PERSON
18-0503031 2415 DONAGHEY AV 2018-05-16 00:47:35.360 CHECKING VEHICLE
18-0503030 18-05390 2125 HARKRIDER ST 2018-05-16 00:39:15.167 CHECKING PERSON
18-0503029 1325 ROBINS ST 2018-05-16 00:27:33.810 DOMESTIC DISTURBANCE
18-0503028 18-05392 2510 PRINCE ST 2018-05-16 00:17:54.290 LOST PROPERTY
18-0503024 2665 DONAGHEY AV 2018-05-16 00:13:27.150 CHECKING PERSON
Call Number Case Number Address Call Time Incident Type

General Contacts

POLICE HEADQUARTERS
1105 Prairie Street
Conway, AR 72032

Conway Police Department


  911 (EMERGENCIES ONLY)

  501.450.6120 (non-emergency)

ANONYMOUS TIPS
 Leave a message at 501.450.6135
 Text CONWAY and your tip to 274637 (CRIMES) Click for an Example

   

City of Conway

We, the members of the Conway Police Department, are committed to protecting and serving the citizens of Conway, Arkansas. That is our highest calling, as we pledge to join hands with others in carrying out our sworn duty to uphold the law.

Chief Jody Spradlin

Latest Tweets